GFSNE_sfc_thetae_057.txt.gz
Theta_e
287 287 287 288 289 289 288 288 287 283 279 280 280 281 282 282 284 284 283 287 289 289 289 289 290 291 291 292 292 293 294 294 295 296 296 297 298 299
288 287 287 287 287 287 289 288 289 286 278 279 279 279 280 282 283 282 281 287 286 287 288 289 289 290 291 291 291 292 292 293 293 294 294 295 297 298
288 288 288 287 286 285 284 282 281 280 278 277 278 278 278 278 279 279 281 281 281 286 287 288 288 288 288 289 290 290 291 291 292 292 293 294 296 297
287 287 286 288 284 283 281 280 279 278 277 275 276 276 277 277 278 278 281 283 281 285 286 286 286 286 287 287 288 290 290 290 291 291 291 292 294 295
287 286 286 285 283 280 279 278 277 279 277 276 276 276 276 277 278 278 279 279 282 284 284 284 285 285 286 287 288 288 288 290 290 291 291 291 292 293
286 284 283 283 281 279 279 278 277 276 276 275 275 275 275 277 277 276 277 278 278 280 282 282 284 285 286 286 286 287 288 288 290 290 291 290 291 292
283 283 282 283 285 282 279 277 276 275 275 274 274 274 274 274 274 277 275 276 276 278 278 278 280 280 281 283 285 286 287 288 288 290 290 289 290 291
281 281 281 284 284 286 285 283 279 276 274 273 273 273 273 274 274 274 274 274 274 278 277 277 279 279 280 281 284 286 287 288 288 289 290 289 289 290
280 280 281 282 283 281 284 283 281 281 278 275 272 273 271 274 274 275 275 275 276 278 277 277 279 277 280 282 285 286 287 288 288 289 290 288 288 289
280 280 281 280 280 280 278 277 277 277 277 277 275 275 275 276 277 278 278 277 277 278 277 275 277 277 279 280 285 286 288 288 288 289 289 289 289 289
281 281 282 281 282 284 278 277 277 277 279 280 280 281 281 281 280 274 274 274 273 275 277 276 275 277 278 279 281 285 287 288 288 287 288 289 290 289
281 282 284 282 282 282 276 275 273 276 275 276 276 277 278 277 279 277 275 272 273 273 276 275 277 278 275 276 277 280 280 285 287 287 287 289 290 285
282 281 281 283 283 283 282 276 274 277 276 276 276 275 275 275 276 276 276 274 273 274 278 278 277 279 278 277 277 279 279 283 284 285 285 288 290 287
282 281 281 283 283 283 281 281 282 278 275 274 273 272 272 273 274 276 277 277 277 277 278 277 278 278 278 278 277 277 279 284 284 283 281 283 287 288
284 283 283 283 284 282 283 282 279 276 274 270 271 272 271 274 275 276 277 277 277 278 280 277 278 278 278 278 279 280 280 280 281 284 281 280 283 277
284 285 282 281 280 280 278 280 277 275 274 273 271 270 271 272 272 273 272 273 272 272 277 278 277 277 277 279 280 280 281 279 278 279 282 278 278 281
282 282 280 279 278 278 277 277 276 275 273 271 269 270 270 271 270 271 272 273 269 271 272 276 277 278 278 280 278 278 278 279 283 282 279 278 280 283
281 280 277 277 277 277 276 276 274 273 275 273 270 270 270 269 269 270 271 268 268 270 271 273 274 272 275 276 282 278 277 278 281 282 279 276 276 279
281 279 277 278 277 276 276 275 274 274 275 274 271 270 270 270 268 269 268 268 268 269 271 272 273 271 270 262 276 282 278 277 277 280 281 280 278 281
282 280 277 278 276 276 275 275 275 274 273 272 269 269 268 267 265 268 268 262 265 269 270 271 271 272 271 269 271 274 281 276 275 275 276 276 278 282
282 281 280 278 278 277 276 275 275 274 269 266 270 269 265 267 264 265 264 264 263 270 269 269 270 273 276 277 269 272 275 281 279 277 277 275 277 276
282 280 281 280 279 277 276 275 274 272 270 269 269 270 266 265 265 263 259 261 266 265 267 269 271 273 274 275 274 274 274 273 277 280 280 280 276 274
282 280 280 280 279 278 278 276 275 274 273 272 271 270 267 264 266 264 261 264 267 266 266 266 269 270 271 273 272 273 274 274 275 274 273 279 281 281

GFSNE_sfc_thetae_060.txt.gz
Theta_e
287 287 287 288 288 288 288 288 288 283 283 283 283 283 283 283 284 284 283 285 287 288 288 288 289 290 291 291 292 293 294 294 295 295 296 296 297 298
288 287 287 287 287 287 287 288 288 288 282 282 281 281 282 282 283 283 282 285 285 286 287 287 288 289 290 290 291 291 292 292 293 294 295 295 296 297
288 287 287 287 286 286 285 284 283 283 280 280 280 280 279 280 280 280 281 281 282 285 286 286 287 287 287 288 288 289 290 291 291 292 293 293 294 295
288 287 287 288 284 283 282 281 280 279 278 276 277 278 278 279 279 279 280 282 282 284 285 285 285 286 286 286 287 287 288 289 290 291 291 292 292 293
287 286 286 285 284 283 281 280 279 280 278 277 277 278 278 278 278 279 280 280 282 283 283 284 284 285 286 286 287 287 287 288 289 289 290 291 291 291
286 285 284 283 282 282 280 279 279 277 277 276 276 276 276 278 278 277 277 279 278 280 281 282 283 284 285 285 286 286 287 288 288 289 289 289 290 290
284 283 283 284 286 283 280 279 277 276 276 276 275 275 275 275 275 276 275 276 277 279 279 280 281 282 282 283 284 285 286 287 287 288 288 289 290 290
282 282 282 284 285 287 288 285 280 277 276 274 275 274 274 274 275 275 275 274 274 280 279 278 281 280 282 282 284 285 286 287 288 288 288 289 289 289
282 281 281 282 284 282 284 285 284 283 279 277 274 274 273 275 275 275 276 276 276 278 279 276 280 279 281 282 284 285 286 287 289 289 288 289 289 289
282 281 280 280 281 281 280 280 279 279 279 278 277 276 276 277 277 277 277 277 277 278 279 274 279 278 281 282 284 285 286 287 288 289 288 288 288 289
283 281 281 280 282 285 282 278 278 278 281 282 281 280 281 281 280 277 274 274 273 274 278 276 278 278 280 281 282 284 286 287 287 288 288 288 287 287
282 282 284 283 284 284 280 278 275 277 277 276 276 278 280 278 279 278 276 273 273 272 278 276 276 278 277 281 281 284 284 284 285 286 287 288 287 287
281 283 282 283 285 285 283 278 276 278 277 276 276 277 277 277 277 277 277 276 274 273 278 278 277 277 278 278 281 282 283 284 284 285 287 286 287 289
283 284 284 284 284 285 283 282 281 278 277 275 274 274 274 275 276 277 278 278 278 277 278 278 276 276 276 276 276 282 283 284 284 284 285 285 285 287
284 285 285 284 284 284 284 283 281 279 277 275 274 274 275 276 277 277 278 277 278 278 279 279 277 277 277 276 276 279 281 283 284 282 284 284 285 284
284 285 285 284 283 282 281 283 282 280 278 276 275 275 274 274 274 275 274 275 274 274 277 278 278 278 276 277 278 279 280 279 283 284 284 284 283 284
283 283 283 282 280 280 279 279 280 278 277 276 274 273 273 273 273 274 274 274 272 272 273 276 278 278 277 277 277 280 279 280 281 283 283 283 283 283
282 281 280 279 278 278 278 278 278 277 277 276 274 274 273 272 272 272 273 271 271 271 272 274 274 274 275 277 281 280 279 278 280 282 282 280 281 283
282 281 280 280 279 279 279 278 277 276 277 275 275 273 273 272 271 272 271 271 271 271 272 273 273 272 271 268 275 282 278 279 278 279 281 281 280 282
283 281 280 280 279 279 278 278 277 277 275 274 273 273 271 271 270 271 271 268 269 271 272 273 272 271 271 271 272 276 279 279 277 277 278 280 281 282
281 281 282 281 280 279 279 278 277 276 275 272 273 271 270 271 270 270 270 266 266 271 271 271 272 273 274 276 273 275 278 280 280 278 278 277 278 279
276 279 281 282 281 278 278 278 276 276 274 272 271 271 270 270 271 269 267 267 269 270 270 271 272 273 274 274 273 275 277 278 278 279 280 280 278 275
270 271 272 276 281 281 279 278 277 276 275 274 273 272 270 270 271 270 268 268 269 269 269 269 270 271 271 273 272 272 274 275 277 277 277 279 280 281

GFSNE_sfc_thetae_063.txt.gz
Theta_e
299 298 297 297 296 296 296 294 292 287 287 290 291 294 293 292 290 290 289 287 286 287 287 288 289 290 290 291 291 292 293 294 295 295 296 296 297 298
297 296 296 296 296 296 295 295 294 291 285 290 291 292 291 289 289 288 288 286 286 286 286 287 288 288 289 290 290 291 291 292 293 294 294 295 296 296
296 295 295 296 295 295 295 294 293 292 288 290 290 289 288 287 288 288 286 286 287 286 286 286 286 287 287 287 288 288 289 289 290 291 292 293 294 295
295 295 294 293 294 294 293 292 291 291 288 286 288 287 286 287 286 285 284 285 286 285 285 285 285 285 286 286 287 287 287 288 288 289 290 292 292 293
295 294 293 293 292 293 292 291 291 289 288 285 285 286 286 286 285 284 284 285 285 284 284 284 284 285 286 286 286 287 287 287 288 288 288 289 290 290
295 294 293 292 292 291 290 290 289 288 287 285 284 284 284 285 284 281 281 283 283 284 284 284 284 285 285 285 285 286 287 287 287 288 288 288 289 289
293 292 292 292 290 289 288 289 288 286 285 284 283 283 283 282 281 281 280 281 283 284 284 284 284 285 286 285 286 286 286 286 287 287 288 289 289 289
292 292 292 289 289 288 288 287 286 286 284 284 283 282 282 282 282 280 280 279 278 285 282 282 284 284 285 287 286 285 286 286 287 287 288 289 289 289
292 291 290 289 288 289 287 286 286 285 283 285 283 283 282 282 281 279 280 280 279 282 282 280 283 283 286 286 286 285 285 286 286 288 289 289 289 289
293 292 291 290 290 288 287 286 286 287 286 284 285 284 284 283 282 281 281 281 281 282 283 278 282 283 285 286 287 286 286 287 287 288 287 289 289 288
292 292 291 290 288 286 286 284 285 286 285 284 283 283 282 281 282 282 280 279 278 279 282 280 281 281 284 285 288 286 286 287 286 286 287 287 288 288
291 291 287 288 286 285 286 285 283 285 285 283 283 283 282 282 281 282 281 278 278 277 282 279 279 280 279 285 286 288 288 287 287 287 287 287 287 288
289 290 290 286 285 285 285 286 285 286 284 283 283 282 282 282 282 283 283 281 278 278 281 280 279 279 278 279 283 285 287 288 289 289 288 287 287 287
287 289 290 287 285 285 285 286 284 283 284 283 282 281 281 281 282 283 283 282 282 280 282 281 279 279 278 277 278 284 285 288 288 287 288 287 288 288
287 287 286 287 286 284 284 285 284 283 283 281 281 281 282 283 283 282 282 282 281 281 281 281 280 279 278 277 278 281 282 285 287 287 286 286 287 287
285 287 286 285 285 285 284 284 285 285 284 282 282 283 283 281 281 282 280 280 279 279 281 281 281 280 279 279 280 280 282 281 285 285 286 288 288 287
284 285 285 285 285 285 284 284 284 285 283 283 282 281 281 280 280 281 280 279 277 277 278 280 280 280 280 279 279 281 282 283 284 284 285 284 287 286
283 283 284 285 284 283 283 283 283 282 283 283 282 281 280 280 280 280 279 278 277 277 277 279 278 278 280 281 281 280 282 281 284 284 285 282 283 286
282 284 284 284 284 283 283 282 282 283 283 282 281 281 281 280 279 279 278 278 277 277 277 278 277 276 275 275 281 281 280 281 282 283 283 284 283 284
275 274 281 284 284 284 284 282 282 283 282 281 281 281 281 280 279 278 278 277 277 276 276 278 277 276 275 275 276 280 280 281 280 280 282 283 285 282
272 273 274 275 279 284 284 283 283 283 282 281 281 280 280 279 279 279 278 275 274 275 275 276 278 275 278 279 277 279 282 280 281 280 280 281 281 283
270 270 271 273 274 276 283 284 283 282 281 281 281 281 280 279 279 278 278 277 276 276 276 277 277 277 278 278 277 278 280 282 281 280 280 280 280 279
269 269 269 270 272 274 275 276 282 281 281 280 280 280 279 278 279 279 278 277 276 275 275 275 276 277 276 276 276 278 277 279 280 281 282 279 280 281

GFSNE_sfc_thetae_066.txt.gz
Theta_e
303 302 300 300 300 299 299 297 294 290 291 295 295 297 297 297 296 295 294 292 289 288 288 288 289 289 290 291 291 292 293 294 294 295 296 296 297 298
301 300 300 300 300 299 298 297 296 294 290 295 294 296 296 295 295 293 292 290 290 289 287 287 288 288 289 289 289 290 291 291 292 293 293 294 295 296
301 299 299 300 298 298 298 297 296 295 291 293 295 296 294 293 293 293 292 291 290 289 288 287 287 287 287 287 287 288 288 289 290 290 291 292 294 295
299 299 298 297 297 297 297 296 295 295 292 290 293 293 293 293 292 291 290 289 289 289 288 286 286 286 286 286 286 287 287 288 288 289 289 290 291 293
299 298 298 297 296 296 296 295 295 293 293 291 290 292 292 292 290 290 289 289 288 288 288 287 286 286 286 286 286 287 287 287 287 288 288 289 289 290
299 298 298 297 296 295 295 294 293 293 292 291 290 289 290 291 290 287 286 287 287 287 288 287 286 286 286 286 286 286 286 287 287 287 288 288 288 288
298 298 298 296 294 293 292 293 293 291 290 289 288 288 287 287 286 288 285 285 286 288 287 288 288 288 288 288 288 287 287 287 287 287 287 288 288 289
296 297 297 295 293 289 289 288 289 290 289 288 287 285 285 286 288 286 285 283 281 288 286 286 287 287 287 289 288 286 286 287 287 287 287 288 289 289
296 296 295 295 293 294 290 287 287 287 285 289 287 287 286 287 287 285 284 283 283 286 285 283 287 285 288 288 288 288 287 287 287 287 287 288 289 289
296 296 296 295 295 294 293 292 291 291 290 288 288 288 288 289 287 286 285 284 285 286 286 282 286 285 287 288 288 288 287 287 287 287 287 288 288 288
294 295 294 294 291 291 292 290 290 290 289 288 287 287 285 283 283 285 283 282 281 283 286 284 284 284 285 286 289 288 288 288 288 288 288 287 288 287
293 293 290 291 289 288 291 290 287 289 288 288 288 286 285 286 283 284 284 281 281 281 285 282 282 282 281 285 287 287 289 288 288 288 289 288 287 289
287 288 290 287 288 288 287 289 288 290 287 288 288 286 286 286 286 285 285 284 282 281 285 284 281 281 281 281 284 285 287 289 289 289 289 288 289 288
285 288 289 287 287 286 287 287 286 286 288 288 285 285 285 285 285 285 285 286 286 284 285 284 280 280 280 280 280 283 286 288 289 288 289 289 288 289
285 286 284 285 285 285 285 285 285 285 285 285 284 284 285 286 285 285 285 286 285 285 284 284 282 282 281 279 280 281 281 285 288 288 288 288 288 289
283 285 286 284 284 285 285 286 286 286 286 285 285 286 287 286 284 284 283 283 282 283 284 284 283 282 280 281 281 280 282 282 287 287 287 288 289 289
280 283 285 286 286 287 288 287 287 286 285 286 286 286 285 285 284 284 283 281 280 281 281 283 284 284 283 281 280 281 283 284 286 286 286 286 287 288
281 281 281 284 286 286 286 286 286 285 286 286 285 285 284 283 283 283 282 281 280 281 281 282 282 282 281 283 284 281 283 284 284 285 285 284 285 288
278 278 278 279 281 282 287 286 285 286 286 285 285 285 284 283 283 282 282 280 280 280 281 282 281 280 277 277 283 282 281 281 282 282 283 284 283 286
276 276 275 276 278 278 280 284 286 286 285 284 284 284 284 283 282 281 281 280 279 280 280 281 281 280 278 277 277 282 281 281 282 281 282 284 286 284
275 274 275 275 275 276 278 280 282 286 285 285 284 284 284 283 282 282 280 280 279 280 278 279 281 277 279 281 278 281 284 281 281 281 281 281 282 284
273 273 273 273 274 274 275 276 279 281 284 284 284 284 284 283 282 281 281 280 278 279 279 281 281 280 279 279 278 280 282 283 283 281 280 279 280 279
272 272 272 272 273 273 273 273 275 277 279 283 284 283 283 282 282 282 281 280 279 279 279 279 280 279 278 278 278 279 279 280 282 282 283 279 280 280

GFSNE_sfc_thetae_069.txt.gz
Theta_e
300 301 303 302 301 301 300 298 295 291 291 295 295 300 300 299 299 298 297 296 294 292 291 290 290 290 290 291 291 292 292 293 294 294 295 296 297 297
299 300 302 302 301 301 300 298 297 294 292 295 295 298 299 297 298 297 296 296 294 292 292 291 289 289 289 289 290 290 290 291 291 292 293 294 295 295
300 302 301 301 300 300 299 298 296 296 293 295 296 298 299 298 296 296 295 295 294 293 292 291 289 288 288 288 288 288 288 289 289 290 291 292 293 293
300 301 300 299 299 299 298 297 297 297 295 292 295 295 296 297 297 295 293 292 292 292 292 290 289 288 287 287 287 287 287 288 288 289 289 290 291 292
301 300 299 299 298 298 297 296 297 295 296 294 293 295 295 295 294 294 293 293 291 292 291 290 290 289 288 287 287 287 287 287 287 287 288 288 289 289
301 300 299 298 297 298 297 297 296 295 295 293 293 293 293 294 293 290 290 291 290 289 290 289 290 290 290 289 289 288 288 288 287 287 288 288 288 288
300 300 300 299 296 295 296 295 295 293 292 292 291 291 291 290 289 290 288 289 289 289 288 289 290 289 289 290 290 290 289 287 287 287 288 288 288 288
297 298 298 297 295 292 291 290 292 292 291 290 289 288 289 289 289 288 288 286 283 289 287 287 288 287 288 289 289 288 288 287 287 288 288 288 288 288
296 297 296 296 295 297 293 289 289 288 286 291 289 288 289 290 290 288 287 286 285 287 287 284 288 287 288 288 289 288 288 288 287 288 288 288 288 288
295 295 296 297 297 295 295 295 294 294 292 290 290 291 291 290 290 289 287 286 286 286 287 283 287 286 288 289 289 289 289 289 288 288 289 288 288 288
294 294 294 294 292 290 291 291 292 292 293 291 290 290 288 285 284 287 285 283 282 283 287 285 285 285 286 286 289 287 287 288 289 289 289 289 289 288
289 289 288 288 287 287 289 289 288 289 291 291 291 289 287 288 284 286 285 282 282 281 285 284 283 283 281 286 287 288 289 288 288 289 289 289 289 289
284 285 287 285 285 286 286 287 287 287 286 288 289 290 289 288 287 287 286 284 282 281 286 285 282 282 281 281 284 287 287 288 288 289 289 289 289 289
282 285 285 284 284 283 284 285 285 285 286 285 285 286 286 286 287 288 288 287 287 285 286 287 283 281 280 280 279 284 286 287 287 288 289 289 289 289
283 283 282 283 283 284 286 285 284 287 285 284 284 286 286 287 288 288 288 288 287 287 286 286 284 282 282 281 280 282 282 284 287 287 288 288 288 288
281 282 281 282 284 284 285 287 288 288 286 284 285 287 287 287 286 287 285 285 284 284 285 286 286 284 281 281 282 281 283 281 286 287 287 288 289 289
279 281 283 283 283 283 286 286 289 289 286 285 285 286 287 287 286 287 285 284 282 281 282 285 286 285 284 283 281 282 283 283 286 286 285 285 287 289
278 280 279 279 279 280 280 283 284 286 286 286 286 286 286 285 285 285 284 283 281 281 281 283 283 282 282 283 284 282 283 283 285 284 284 283 284 288
278 278 278 277 277 277 278 280 280 280 286 286 286 286 286 286 285 284 283 282 281 281 281 283 282 280 277 277 282 284 281 282 282 283 283 284 282 284
277 276 276 276 276 275 276 277 279 279 280 286 285 285 285 285 284 283 283 282 281 280 280 282 281 280 279 278 278 282 282 282 282 281 281 283 285 285
275 275 275 275 275 274 275 276 276 277 278 280 285 285 285 284 284 283 283 282 281 280 279 279 281 279 281 280 277 280 284 283 283 282 281 280 281 283
274 273 273 274 273 274 274 275 274 274 276 278 279 284 285 284 283 283 283 281 280 280 279 281 282 281 280 278 277 280 281 283 283 282 281 279 279 277
272 272 272 272 273 273 272 273 273 272 273 276 277 278 278 283 284 283 282 282 281 279 279 279 280 280 279 278 278 278 280 281 281 282 282 282 281 281

GFSNE_sfc_thetae_072.txt.gz
Theta_e
299 299 300 300 301 299 297 295 291 284 286 289 290 294 295 294 295 293 292 297 296 295 293 293 293 293 291 291 291 292 293 293 293 294 294 295 296 296
299 298 298 299 300 298 297 295 293 290 287 290 290 292 294 295 295 294 293 297 295 295 294 294 294 292 291 290 290 290 291 291 291 292 292 293 293 294
298 298 298 299 297 297 296 295 292 291 288 289 291 292 291 291 292 292 294 290 290 295 294 294 293 292 290 290 289 289 289 289 290 290 291 291 292 293
297 297 298 300 298 296 295 293 292 291 289 287 290 290 290 290 290 290 292 293 289 293 294 293 292 291 291 290 289 289 288 288 289 289 289 290 290 291
299 298 298 298 295 294 294 292 291 293 290 288 288 289 288 289 288 289 289 289 291 294 293 292 292 292 291 291 290 290 290 289 289 288 288 288 288 289
299 299 298 297 294 293 293 291 292 289 288 287 286 286 286 288 287 286 285 285 287 290 291 289 290 292 292 291 291 290 290 290 289 289 289 288 288 288
297 298 297 297 296 294 294 290 290 288 288 287 286 286 285 283 283 285 285 285 284 285 284 283 283 285 285 289 290 292 291 291 290 289 289 288 288 288
293 294 294 294 294 292 292 291 292 290 289 289 287 285 285 284 284 282 282 282 280 284 284 280 283 281 283 284 289 288 288 288 288 288 288 288 288 289
290 291 292 294 292 293 291 290 289 290 287 289 288 287 286 286 285 283 282 282 282 283 281 279 280 279 283 287 289 289 289 289 289 288 288 288 288 288
290 290 289 288 288 287 286 285 285 287 289 289 287 287 288 289 289 286 283 284 282 282 282 276 280 280 282 283 289 289 289 289 289 289 289 289 289 288
288 287 286 285 287 287 283 282 283 284 288 290 290 290 290 290 290 286 283 281 276 279 280 280 280 279 280 280 281 288 288 288 288 289 289 289 289 289
282 283 284 284 285 285 282 280 279 280 283 284 284 285 288 288 288 286 284 281 279 276 280 279 278 278 275 279 280 281 281 286 288 288 288 289 289 286
279 279 281 284 284 283 283 280 280 281 281 282 282 282 283 286 285 284 285 284 281 279 281 278 277 278 276 276 277 279 280 280 279 282 287 288 289 288
278 279 280 282 282 282 282 283 284 283 282 282 282 282 283 284 286 285 284 284 284 282 282 281 276 278 276 274 275 277 278 279 281 280 281 285 288 289
279 279 280 280 281 281 284 284 284 283 283 282 281 281 283 285 286 285 285 284 284 283 284 282 280 280 277 275 276 277 277 279 280 278 282 282 281 281
278 277 277 279 278 279 279 281 281 282 281 283 283 283 284 285 284 285 283 281 279 278 283 282 281 281 278 279 277 277 278 274 279 277 283 283 281 283
274 275 276 277 276 276 276 277 278 279 279 279 284 284 284 285 284 284 281 281 280 278 278 279 282 282 282 280 276 278 279 278 280 280 280 279 280 281
274 273 272 272 273 274 274 274 275 275 276 278 279 284 283 284 284 284 283 282 280 280 279 279 279 280 280 280 282 279 278 279 275 279 279 277 278 279
273 273 269 270 272 273 273 273 273 274 275 276 277 279 284 283 282 281 282 281 280 280 279 279 279 278 276 267 278 284 276 277 276 276 279 276 277 279
273 272 271 271 272 272 272 272 272 273 272 273 275 277 282 280 279 280 282 280 280 280 279 279 279 279 276 272 271 273 283 275 275 275 275 277 279 283
273 272 270 271 271 271 271 271 271 271 271 271 272 275 276 278 278 277 281 281 281 281 278 278 279 279 279 276 267 269 273 284 281 276 276 273 275 277
270 270 270 270 270 270 270 270 270 269 270 270 270 273 273 273 274 279 281 281 280 278 279 279 279 279 277 277 273 268 275 280 282 283 282 279 272 269
267 269 269 268 269 269 269 268 268 268 269 269 269 270 270 270 271 272 281 280 280 278 278 277 278 279 278 278 275 273 273 272 276 275 274 282 281 281

GFSNE_sfc_thetae_075.txt.gz
Theta_e
299 299 299 301 301 301 299 296 290 282 284 288 288 292 292 292 294 295 292 297 297 297 297 297 296 295 295 294 293 292 292 292 293 293 294 294 295 295
299 299 299 300 300 300 299 295 293 290 286 288 289 290 291 294 294 293 291 296 297 296 295 295 296 295 295 293 292 292 291 291 291 292 292 292 293 294
299 298 298 299 298 297 295 294 292 289 285 287 289 289 288 289 291 290 291 292 292 295 294 294 294 295 295 294 292 291 291 290 291 291 291 291 292 293
297 297 297 299 296 295 294 292 290 290 288 287 287 287 288 289 288 288 291 293 290 293 295 295 294 294 293 292 292 291 291 290 290 290 290 290 290 291
298 298 298 297 294 293 292 291 291 293 289 286 288 286 286 287 286 287 287 288 290 294 294 293 294 294 293 292 292 291 291 291 290 290 289 289 289 290
299 298 297 296 295 292 291 290 290 287 287 286 287 285 284 285 285 284 283 285 284 290 291 289 290 291 293 293 292 292 291 291 291 290 290 289 289 289
297 298 297 296 295 294 293 289 288 286 284 284 286 286 282 281 282 283 284 282 283 284 283 283 283 283 283 289 291 292 292 292 291 291 290 290 289 289
289 290 290 292 291 290 288 288 287 284 283 284 286 286 288 285 283 286 284 283 282 283 282 280 281 280 282 283 287 289 290 289 290 291 290 289 289 289
287 287 288 289 287 285 285 285 285 286 284 283 283 284 286 288 288 285 284 283 284 285 281 278 279 279 281 285 289 290 289 289 289 289 289 289 288 288
285 285 283 282 283 284 282 280 281 281 282 283 283 284 286 287 288 288 287 286 284 283 281 276 278 278 280 281 287 290 289 289 289 289 289 289 288 288
283 282 282 281 284 285 281 279 278 279 283 284 285 286 287 287 287 285 284 284 282 279 280 280 278 277 279 279 281 287 288 288 289 289 289 288 288 288
279 280 282 282 283 283 279 278 277 279 280 281 281 282 283 283 285 284 284 282 282 279 280 280 278 277 274 277 279 279 279 283 286 287 288 288 288 284
278 278 278 281 281 282 282 280 280 282 282 283 282 282 282 281 282 284 285 284 283 281 282 279 277 276 275 276 277 279 278 278 277 280 284 286 287 287
278 278 278 280 281 281 281 282 282 281 282 282 281 282 282 282 282 283 285 285 285 284 283 280 275 277 275 274 274 277 276 277 275 277 279 282 285 287
278 278 278 279 280 279 280 279 278 277 277 277 277 278 281 284 283 283 286 285 284 283 284 281 279 278 277 275 274 276 275 277 276 274 276 279 279 279
277 276 276 277 277 276 277 277 276 275 275 275 275 277 279 283 283 285 284 283 281 281 282 282 281 280 278 278 277 276 276 273 275 275 279 283 280 279
273 272 274 275 275 275 274 274 274 274 273 273 273 274 276 277 282 284 284 283 280 278 278 280 281 281 280 279 275 277 277 276 275 278 278 276 278 279
273 270 269 266 267 272 271 271 271 271 272 272 272 273 274 275 276 283 283 281 279 277 278 279 279 278 278 280 282 278 274 275 273 278 277 274 278 279
269 268 263 260 263 271 271 270 269 270 272 272 270 270 272 275 273 280 283 282 280 280 279 279 279 278 276 273 278 284 278 278 275 274 275 275 275 278
270 267 263 263 265 268 269 269 269 269 269 269 269 269 270 272 271 272 280 280 280 280 279 280 279 278 276 274 273 273 282 275 273 271 273 274 277 281
269 269 265 266 266 268 264 264 262 264 266 266 267 268 268 270 269 270 272 275 277 280 279 278 280 279 279 276 270 269 272 282 280 276 275 271 272 274
266 268 267 266 264 264 260 263 266 263 265 266 265 267 267 268 268 269 269 270 273 281 279 279 279 279 278 276 273 266 272 275 281 283 282 279 271 268
264 265 263 261 261 260 264 265 264 261 264 265 265 266 265 265 268 268 268 269 272 279 278 278 279 278 278 277 275 273 272 270 275 275 273 281 282 281

GFSNE_sfc_thetae_078.txt.gz
Theta_e
300 301 301 301 302 301 301 299 294 288 288 289 289 292 292 292 293 293 294 298 299 298 298 299 300 299 298 297 297 296 295 294 293 293 293 294 294 295
300 300 300 300 300 300 300 300 297 293 287 288 289 290 291 293 293 292 292 296 297 297 296 297 298 299 298 298 297 295 294 293 293 292 292 292 293 294
299 299 299 299 299 299 299 297 294 289 286 287 288 289 288 288 290 290 291 290 291 296 296 296 296 296 296 296 296 296 294 293 292 292 292 292 292 292
299 298 298 299 297 297 296 293 290 290 287 286 287 286 287 288 288 288 290 291 289 293 296 296 296 295 294 295 294 294 293 293 292 291 292 291 291 292
298 297 298 298 296 294 292 291 290 292 288 285 287 286 286 286 286 286 287 287 289 293 294 294 295 295 295 294 294 293 292 292 291 291 291 291 290 290
299 298 298 297 294 292 291 289 290 289 289 285 285 285 283 285 284 283 284 283 285 289 292 290 293 293 294 294 293 293 293 292 292 291 291 290 290 290
298 297 295 293 290 289 286 283 282 282 281 281 281 281 282 280 281 282 282 283 282 284 285 287 285 286 287 292 292 293 293 292 292 291 291 291 290 290
289 287 288 288 288 287 287 287 285 280 279 278 279 280 281 282 284 282 286 285 283 284 284 284 282 282 283 282 287 289 289 290 291 291 290 290 290 289
284 284 285 284 284 283 283 283 282 283 282 279 278 278 279 280 282 282 284 284 284 286 283 283 279 279 281 284 288 289 290 290 290 290 289 289 289 288
282 281 280 280 283 282 280 278 278 279 279 280 278 278 280 281 282 284 283 283 284 285 287 282 280 281 280 280 286 288 290 290 290 289 289 289 288 288
281 281 280 280 282 282 279 278 278 279 283 284 285 285 286 286 285 282 280 278 277 279 281 283 284 281 279 279 280 286 289 288 288 288 288 288 288 288
279 280 281 280 281 281 279 278 277 278 280 280 281 284 285 284 284 282 280 278 279 279 281 281 282 280 278 278 279 279 278 283 285 285 286 286 287 283
278 278 278 280 280 281 282 279 279 278 278 278 278 279 281 282 283 284 282 281 280 280 283 282 280 279 277 275 276 278 278 277 276 279 283 285 285 285
278 278 278 279 280 281 280 280 279 278 276 274 275 275 276 276 279 281 284 284 285 283 285 284 279 278 276 273 274 276 275 276 274 276 277 281 283 285
278 278 278 279 279 279 279 278 276 275 273 272 272 273 273 276 278 279 283 284 285 285 285 284 279 278 276 274 274 274 274 277 275 273 275 276 277 279
277 277 276 277 276 276 276 277 276 274 273 271 271 272 273 274 274 277 276 281 283 283 284 284 281 280 277 277 277 275 276 274 275 275 277 277 281 279
274 274 274 274 274 274 274 274 273 272 271 271 270 271 271 271 272 275 275 276 281 280 281 281 281 281 280 279 275 277 277 276 276 276 278 278 277 278
274 271 268 265 267 271 270 270 269 268 270 270 269 269 269 269 270 272 274 272 278 280 280 280 280 279 279 279 281 277 274 275 270 277 278 274 276 277
270 269 263 261 263 269 268 267 267 268 270 268 267 268 268 268 268 269 271 272 272 280 279 279 280 279 276 267 278 284 278 277 276 274 275 274 274 276
272 269 265 264 266 267 266 267 267 266 265 266 266 264 265 267 266 267 269 269 270 272 279 279 280 280 277 272 271 276 283 277 275 272 271 273 276 280
270 269 266 267 266 266 261 258 256 261 258 257 261 261 264 265 264 265 267 268 268 270 274 279 280 281 281 276 270 272 271 281 279 275 274 270 271 273
266 268 267 267 262 261 256 254 259 256 259 260 261 260 260 262 263 263 266 266 267 269 270 276 281 280 276 276 274 269 271 274 279 283 281 279 272 268
264 266 265 260 260 259 262 260 259 257 260 262 263 264 262 261 263 263 266 266 267 268 269 276 279 278 277 277 276 274 272 270 274 274 272 281 282 282

GFSNE_sfc_thetae_081.txt.gz
Theta_e
305 305 304 303 303 302 301 299 296 291 290 292 292 294 293 291 292 291 292 297 299 300 299 300 302 303 303 303 302 301 300 298 297 296 295 295 294 295
304 304 302 300 300 302 301 300 299 295 291 292 291 290 291 292 293 292 291 297 298 298 298 298 299 300 301 301 301 300 298 298 297 295 295 294 294 294
300 301 300 301 300 299 299 299 297 295 291 291 288 289 288 288 290 290 291 290 291 296 296 297 297 297 298 298 298 299 298 297 295 295 294 294 294 294
300 300 299 300 298 298 297 296 294 292 289 285 287 286 286 287 287 287 290 291 288 293 295 296 296 296 296 296 296 296 296 294 295 295 294 293 293 293
300 299 299 298 296 296 295 294 292 292 287 284 285 285 285 285 285 286 286 286 289 293 293 293 294 296 296 296 296 295 295 293 293 293 293 293 292 292
299 298 298 297 296 294 293 290 289 285 284 282 281 282 283 283 282 282 283 283 284 288 291 291 292 294 295 295 295 294 294 293 293 292 291 290 290 291
298 298 294 291 290 290 287 282 281 280 279 279 279 279 279 279 280 281 282 283 284 283 284 285 285 287 289 292 294 294 293 293 293 292 291 291 290 290
289 289 288 287 287 286 286 286 283 279 277 277 277 276 276 277 278 278 279 279 277 283 281 283 283 284 285 286 289 292 292 292 292 292 291 291 290 290
286 286 284 284 284 282 283 282 281 282 280 278 275 275 275 276 277 277 278 279 279 282 283 282 281 282 285 286 289 289 290 290 290 290 290 289 289 289
283 281 280 281 282 281 279 278 278 279 280 280 277 277 277 278 279 281 281 281 281 281 281 277 281 280 283 282 287 289 290 289 290 290 290 289 289 288
281 281 280 279 281 282 279 278 278 279 282 283 283 283 284 285 285 283 280 279 278 279 279 278 279 280 282 281 281 287 289 289 290 289 289 288 288 288
280 280 281 280 280 281 279 278 276 277 277 278 278 279 281 281 283 282 282 278 278 277 279 277 277 277 279 278 281 282 283 288 287 286 285 285 287 282
278 278 278 279 280 281 281 279 277 277 276 276 275 276 277 278 278 278 279 279 279 279 281 280 277 278 280 279 279 280 278 278 277 280 284 284 285 284
278 278 278 279 280 280 279 279 278 276 274 273 273 273 273 273 274 276 277 278 280 280 283 284 281 280 279 277 276 277 276 276 275 276 277 280 283 284
278 278 278 278 279 279 278 277 276 274 273 270 270 271 272 273 273 275 276 277 278 278 283 284 284 282 280 276 275 275 276 276 275 273 274 277 277 276
277 277 277 277 277 277 276 276 275 274 272 271 270 271 272 271 271 272 272 273 273 274 281 285 284 283 279 279 278 276 276 273 274 273 276 277 278 278
276 275 275 275 274 273 273 273 273 272 271 270 269 269 269 269 269 270 271 271 270 271 273 282 284 283 282 280 276 277 276 275 275 277 277 277 278 278
275 273 270 269 270 271 270 270 270 270 270 269 268 267 267 266 267 268 269 268 268 270 271 278 281 279 279 280 282 278 272 274 271 277 278 276 276 277
272 270 267 266 267 270 269 268 267 268 269 268 266 265 266 265 265 265 265 266 266 269 270 272 280 279 276 273 278 283 277 276 275 275 277 276 275 275
272 270 268 267 268 268 267 267 267 265 265 265 263 262 261 263 264 263 264 263 265 267 269 271 279 280 278 275 272 275 283 275 275 274 272 274 276 279
270 269 268 268 267 266 263 261 257 259 260 257 258 258 256 263 262 262 262 262 264 267 267 269 272 273 280 278 273 269 271 281 280 276 275 271 272 272
268 268 268 267 265 263 260 257 258 255 257 256 256 256 256 258 261 261 261 261 264 265 267 269 272 274 278 277 273 266 270 272 279 282 280 279 273 268
264 265 265 262 261 259 261 257 257 254 257 258 260 261 257 259 262 262 261 263 263 264 266 267 270 274 278 277 275 271 271 271 274 274 274 281 282 281

GFSNE_sfc_thetae_084.txt.gz
Theta_e
309 307 306 306 305 305 303 301 300 294 293 294 293 296 296 295 295 295 294 296 298 299 300 301 302 303 304 305 305 305 304 304 303 302 301 299 298 298
308 307 306 304 304 302 302 301 300 298 294 295 293 294 294 294 294 295 293 296 297 297 297 299 300 301 302 302 303 303 304 304 302 301 300 299 298 297
304 305 304 303 302 301 301 300 299 297 293 294 292 292 291 291 292 292 292 292 292 295 296 296 297 298 298 299 299 300 301 301 301 300 299 298 298 297
303 303 302 302 301 300 299 298 297 296 294 290 290 290 290 291 290 289 290 291 291 292 294 295 296 296 296 296 296 297 297 298 298 298 298 296 296 296
304 302 301 300 298 297 297 296 295 294 291 289 289 288 287 287 287 287 288 288 289 292 293 293 293 294 295 295 296 296 296 295 295 295 294 294 295 294
301 301 300 299 298 296 295 293 292 290 288 286 285 284 285 285 284 283 283 284 284 287 289 290 291 292 293 293 294 295 295 295 295 294 293 292 292 293
298 297 294 294 293 293 291 287 286 284 282 281 280 281 280 280 281 281 280 281 282 284 284 285 286 287 288 290 291 292 293 294 294 293 293 292 291 291
290 289 288 288 287 287 287 285 284 282 280 279 279 278 277 278 279 279 279 278 277 283 283 283 285 285 286 288 288 289 290 291 292 293 292 292 291 291
287 285 285 285 285 284 283 282 282 282 280 279 277 277 277 279 279 278 278 278 278 282 282 280 284 283 285 286 288 289 290 290 291 291 292 291 290 289
285 284 283 282 282 281 280 279 280 280 281 281 279 279 279 280 280 281 282 282 282 283 283 278 282 281 283 284 286 288 288 289 290 290 290 289 289 288
282 282 282 281 282 282 280 279 279 280 281 281 281 281 281 282 282 282 279 279 278 279 282 280 281 281 283 283 285 286 287 289 289 289 290 290 289 288
280 280 281 280 280 281 280 279 277 277 277 277 277 278 278 280 280 279 278 275 276 277 281 279 280 281 279 282 282 283 284 286 288 288 289 289 287 286
279 278 279 279 280 281 281 279 278 277 276 275 275 275 276 276 276 276 276 276 274 275 280 280 280 281 280 280 281 282 283 284 285 286 285 285 285 285
279 278 278 279 280 280 279 278 277 276 275 274 273 273 273 273 274 274 275 276 277 277 279 279 276 279 280 279 278 281 280 281 281 282 282 282 283 284
278 278 278 278 279 279 278 277 276 274 273 271 271 271 272 273 273 273 274 274 276 277 278 278 277 279 281 280 280 279 279 280 280 281 281 281 282 282
277 278 277 278 277 277 276 276 275 274 272 271 271 271 272 271 271 271 270 271 271 272 275 277 277 277 281 282 281 279 279 279 280 279 280 281 281 281
276 276 276 275 274 274 274 273 273 272 271 271 270 269 269 269 268 269 269 268 267 268 269 273 275 276 278 283 279 280 280 279 280 280 279 279 281 282
275 273 272 270 271 271 271 271 270 270 269 269 269 268 266 266 266 266 268 266 265 266 268 270 271 272 280 282 284 280 280 279 278 280 280 279 279 282
273 272 269 269 269 270 270 269 268 268 269 267 267 265 265 265 264 264 265 264 264 265 266 269 270 271 271 275 280 284 280 278 279 278 279 279 279 280
272 271 268 268 268 268 268 267 267 266 265 265 264 263 261 262 263 263 263 262 262 264 264 268 269 270 269 271 276 279 283 280 279 278 277 278 279 280
269 269 268 268 268 267 266 264 261 259 260 259 259 259 259 260 262 262 262 261 261 263 264 265 268 271 272 274 276 276 278 282 281 280 278 277 277 277
266 267 267 266 265 265 262 258 257 258 259 259 260 257 258 259 261 260 261 261 262 263 263 266 268 270 271 271 276 274 276 276 281 282 281 280 278 275
263 263 262 261 261 261 262 260 258 256 258 259 259 260 259 258 260 261 262 262 262 262 262 264 267 268 270 272 277 275 273 274 278 278 279 281 281 281

GFSNE_sfc_thetae_087.txt.gz
Theta_e
314 313 311 311 311 311 309 308 308 297 299 302 304 304 303 299 301 300 303 300 298 299 300 301 303 304 304 305 305 305 305 306 305 306 304 304 303 303
314 311 311 309 308 307 307 307 307 304 300 303 302 298 298 298 300 300 299 298 297 297 297 298 299 301 302 303 303 304 304 304 305 305 304 302 303 303
311 310 310 310 307 305 306 304 303 304 302 299 297 296 296 296 297 299 300 300 301 295 295 295 296 297 297 298 299 300 301 302 302 303 303 302 301 302
311 310 310 307 305 303 303 302 302 300 296 295 295 292 293 296 298 297 297 297 298 296 294 294 295 295 295 295 296 296 296 297 297 298 299 301 301 300
310 308 307 304 302 301 300 300 298 298 299 293 291 292 295 296 294 295 295 295 293 292 291 292 293 294 294 294 293 294 294 294 294 295 296 296 298 299
307 306 304 302 300 299 298 298 297 295 293 290 291 293 293 292 292 290 290 290 288 288 289 289 290 290 291 292 293 292 292 293 293 294 294 293 293 295
302 300 299 299 297 296 297 293 293 288 287 286 288 287 288 289 288 288 285 286 287 288 288 289 289 290 291 290 290 290 291 290 291 291 292 293 293 292
290 290 289 288 287 287 287 286 287 287 286 286 287 287 287 284 285 284 284 283 282 289 287 286 288 287 289 291 290 290 290 289 290 290 291 291 292 292
288 287 286 286 285 284 283 283 283 282 282 284 284 283 283 284 284 283 283 283 283 286 286 283 287 286 289 289 289 289 289 289 289 289 290 290 290 291
286 285 284 283 284 283 281 281 282 283 283 283 284 284 284 285 284 284 284 284 285 286 286 282 286 285 288 289 289 288 288 288 288 289 289 290 290 290
284 284 283 282 283 282 281 281 281 282 282 281 281 280 280 280 282 283 281 280 280 282 284 283 284 284 286 287 289 288 288 287 287 288 289 290 289 289
281 281 281 281 281 281 282 282 280 281 280 279 280 279 279 280 279 280 279 277 278 278 285 282 283 283 281 286 287 288 288 288 287 287 289 289 290 290
279 279 280 280 281 281 281 282 280 280 278 278 277 278 278 278 278 278 278 277 276 277 281 280 280 280 279 280 284 287 288 288 288 288 288 288 289 288
280 280 280 279 280 281 280 279 278 278 278 277 276 276 275 275 276 277 277 277 277 277 278 278 277 278 277 277 279 284 287 289 289 288 289 287 285 285
280 279 278 279 279 280 278 278 277 278 277 275 275 275 275 275 275 275 275 275 275 275 276 277 277 278 278 277 277 281 284 286 288 287 287 286 286 287
279 279 278 278 279 279 279 278 278 277 275 274 274 274 274 274 272 273 272 272 272 273 276 277 277 278 276 277 279 281 284 282 287 286 286 287 287 287
279 280 279 278 277 277 277 276 276 275 274 274 273 273 273 272 272 272 272 271 271 271 272 274 276 277 277 277 277 279 284 284 286 285 284 283 285 286
278 277 276 276 275 274 274 274 274 272 272 272 271 271 270 270 270 270 271 270 270 270 270 272 272 273 276 279 282 281 284 284 286 285 285 283 283 286
275 275 274 274 273 273 272 272 271 271 271 270 270 269 269 268 268 268 269 269 268 269 270 271 271 271 270 271 278 283 283 284 284 283 284 284 283 284
273 272 272 272 272 271 270 270 269 269 269 268 268 268 267 267 266 267 267 267 267 267 268 270 271 271 269 269 270 275 277 283 283 283 283 285 285 280
270 270 270 269 269 268 268 268 267 266 266 266 266 266 266 266 265 266 266 265 265 266 266 268 270 270 271 273 271 274 279 284 285 285 284 283 282 282
267 267 267 267 266 266 266 266 265 265 265 265 265 265 265 265 265 265 265 265 266 266 266 268 270 271 271 270 270 272 278 283 283 283 283 283 282 278
264 265 265 265 265 265 265 264 264 263 263 263 264 264 264 263 265 265 265 266 266 266 266 266 268 269 269 269 269 271 278 281 282 280 283 281 281 281

GFSNE_sfc_thetae_090.txt.gz
Theta_e
327 328 327 326 325 320 312 314 308 302 304 308 308 311 313 312 308 309 306 303 300 300 300 302 304 305 305 305 305 305 304 304 305 305 307 307 307 306
324 322 320 320 319 315 312 313 310 307 304 308 306 308 310 308 306 305 305 302 299 298 298 298 299 300 301 302 302 303 303 303 303 303 304 304 304 304
319 317 316 316 313 312 312 312 308 308 304 303 306 302 304 304 299 300 301 301 302 297 296 296 296 296 297 298 298 299 299 300 300 300 301 302 303 304
317 317 315 313 311 312 312 311 307 306 304 302 298 296 296 299 299 298 298 299 302 300 296 295 295 295 295 295 295 296 296 296 296 297 297 297 299 300
319 317 314 313 310 312 311 307 308 301 299 297 295 299 297 296 296 298 298 302 301 299 293 292 292 293 293 293 294 294 293 293 293 294 294 295 296 296
317 314 312 311 309 306 303 301 299 298 297 296 295 293 293 294 295 295 296 299 298 297 294 291 291 291 292 292 292 292 293 293 292 292 292 292 293 294
307 304 301 303 299 299 300 301 298 294 293 292 290 289 288 291 292 296 295 295 295 294 292 291 291 292 293 292 292 292 292 292 292 291 291 290 290 292
292 291 289 289 288 287 287 286 288 288 288 287 288 288 291 293 293 291 290 288 286 292 290 290 291 289 290 291 291 291 291 290 290 290 290 290 290 290
289 288 287 286 285 284 284 284 284 283 282 288 287 288 288 289 288 287 287 286 286 289 289 287 290 288 290 290 290 290 290 290 290 290 289 289 289 289
286 285 285 284 284 284 283 282 283 283 284 284 286 287 287 287 287 286 286 286 287 288 289 285 288 288 290 290 290 291 290 289 289 289 289 289 289 289
284 284 283 283 283 284 283 283 283 283 282 281 280 280 280 280 281 283 283 282 282 284 287 284 285 285 287 289 290 290 290 289 289 288 289 288 289 289
281 281 281 281 282 282 283 283 282 283 283 282 283 282 281 283 280 282 282 280 279 280 285 283 284 283 280 286 288 290 289 288 288 289 288 288 289 290
281 280 280 281 281 282 281 283 282 283 281 281 282 282 282 282 282 282 281 280 279 279 282 281 280 280 280 280 283 285 287 287 291 290 289 288 289 289
282 283 282 280 280 280 281 280 278 279 282 281 281 280 280 280 280 280 280 280 280 278 280 279 277 277 277 277 278 282 284 287 290 289 290 289 287 287
282 280 279 279 279 281 279 279 278 281 280 279 278 278 279 279 279 279 279 279 279 278 278 278 277 278 278 277 278 280 281 283 288 290 289 288 287 288
281 282 280 280 279 280 280 280 281 279 277 277 277 277 277 277 276 277 276 276 276 276 279 280 279 278 277 278 278 278 281 281 285 288 289 288 288 289
281 282 281 280 279 279 279 279 278 278 276 277 275 275 274 274 274 275 274 274 272 273 275 277 278 278 278 277 275 277 279 280 285 285 287 286 287 288
280 279 278 278 277 276 276 276 276 275 275 273 273 273 272 272 271 272 272 271 271 272 272 274 275 275 275 277 279 278 280 282 285 285 287 284 284 287
277 276 275 274 274 274 274 273 272 272 272 271 271 270 270 270 270 269 270 270 270 270 271 272 272 272 270 271 276 280 278 279 277 283 286 285 284 285
274 273 272 272 272 271 271 271 270 270 270 269 269 269 269 268 267 268 268 268 268 269 269 271 271 271 270 270 271 274 276 276 276 279 284 285 286 281
271 271 271 271 270 270 270 269 269 268 268 267 268 267 268 267 267 267 267 267 267 268 267 269 271 272 273 274 271 273 278 279 280 279 285 283 283 283
270 269 270 269 269 269 269 268 268 268 267 267 267 267 267 267 266 266 267 267 267 268 268 269 271 271 271 270 270 272 274 277 278 283 284 284 284 280
268 268 268 268 268 268 268 267 267 266 266 266 266 266 266 265 267 267 267 267 267 267 268 268 269 270 270 270 271 271 271 273 275 282 282 282 282 281

GFSNE_sfc_thetae_093.txt.gz
Theta_e
328 329 327 326 326 328 327 321 315 308 308 310 312 312 312 312 311 310 307 305 301 301 302 303 305 306 306 306 306 306 305 305 305 305 305 306 306 307
328 327 327 326 325 325 322 319 316 311 306 314 309 311 310 313 312 309 308 307 301 300 300 300 301 303 303 303 304 304 304 303 303 304 304 304 304 305
327 325 324 321 317 317 319 317 313 312 307 309 310 312 306 307 302 305 306 308 304 298 297 298 298 298 299 299 299 300 300 301 301 301 301 302 303 304
325 323 317 316 319 319 316 312 311 310 308 305 308 300 305 299 299 299 301 303 303 300 297 297 297 296 296 295 296 296 296 297 297 297 297 298 299 300
321 316 315 315 317 315 313 311 309 309 309 306 300 297 296 297 297 298 298 298 299 301 297 295 295 295 295 294 294 294 294 294 294 294 293 294 293 293
320 317 316 317 315 314 311 310 306 302 299 298 295 293 293 295 294 293 293 295 296 301 300 296 294 294 294 293 293 293 293 293 292 292 292 291 291 292
300 296 293 293 292 292 300 299 298 297 293 292 289 289 288 289 289 291 291 294 297 299 297 297 296 295 294 293 292 293 292 292 292 292 292 291 290 291
291 289 288 287 287 287 287 286 286 289 288 287 287 287 288 289 291 289 288 287 286 295 292 291 294 292 292 292 292 291 291 292 292 292 291 290 290 290
288 287 286 286 286 286 285 285 285 285 283 285 284 284 284 285 285 285 286 286 287 290 289 287 291 289 292 291 291 291 291 291 291 290 290 289 289 289
285 285 284 283 284 284 284 284 283 283 284 286 285 286 286 286 287 286 286 286 286 287 288 283 287 287 291 292 292 292 292 291 290 290 290 289 289 289
283 283 283 282 284 285 284 283 284 282 282 281 281 281 281 281 281 281 280 281 281 283 287 285 286 286 288 288 290 291 291 291 290 290 290 289 289 289
281 281 282 282 282 283 283 283 282 284 284 284 285 283 282 284 281 281 281 279 280 280 284 282 281 283 281 286 287 288 289 288 289 289 289 289 289 289
281 280 281 281 282 282 281 283 281 281 282 283 283 283 284 284 284 284 283 281 279 278 282 280 279 279 279 280 283 285 286 287 287 288 288 289 290 289
283 283 281 280 281 281 282 280 279 280 282 281 281 281 281 281 282 282 281 281 281 279 281 280 277 276 276 276 276 281 283 285 286 286 287 289 289 289
282 280 280 280 281 280 279 279 280 281 280 278 278 278 279 279 279 279 280 280 280 280 280 280 279 278 277 275 276 278 279 281 284 285 286 287 287 288
282 282 281 280 280 281 281 281 281 280 278 277 276 276 277 277 276 277 276 276 275 276 278 280 279 279 277 277 277 276 278 277 282 283 285 286 287 289
282 283 281 280 279 279 279 279 278 277 276 275 274 273 273 273 274 275 274 273 272 272 273 276 277 278 278 276 275 276 276 278 280 281 282 281 283 288
281 279 278 277 276 276 275 275 275 274 274 273 272 272 271 271 271 271 272 271 270 271 272 273 274 273 274 275 277 275 277 277 280 281 282 279 280 286
277 276 275 275 274 274 273 273 272 272 272 271 271 270 270 269 269 269 269 270 269 270 270 271 271 270 269 268 274 277 273 274 275 275 278 278 276 286
274 274 273 273 273 272 272 271 271 270 270 270 269 269 269 268 268 268 268 268 268 268 269 270 271 271 269 268 268 272 275 274 274 275 276 279 281 283
272 272 272 271 271 271 270 270 270 269 269 269 269 268 268 268 267 267 268 267 267 268 267 268 270 272 273 273 269 271 274 277 277 276 276 275 278 282
271 271 271 271 270 270 270 270 269 269 268 268 268 268 268 268 267 267 267 267 267 268 268 270 271 272 271 269 268 270 272 275 277 277 278 277 279 279
270 270 270 270 270 269 269 268 267 267 267 267 267 267 267 266 267 267 268 268 268 268 268 268 270 270 269 270 269 270 271 272 273 274 277 282 283 283

GFSNE_sfc_thetae_096.txt.gz
Theta_e
321 320 319 321 321 321 318 317 313 307 308 311 308 314 315 314 313 313 312 308 303 303 303 304 306 307 307 308 309 310 310 310 310 309 309 308 308 308
321 320 320 320 320 321 321 318 315 313 308 313 312 313 312 313 312 311 311 307 302 300 300 301 303 304 305 305 306 306 306 306 306 305 305 305 305 305
319 319 319 320 320 320 315 314 314 313 309 312 313 312 310 309 310 310 310 308 305 300 299 299 300 300 301 301 301 302 303 303 303 303 303 303 304 304
319 319 319 320 318 315 314 313 313 314 311 308 311 305 307 304 304 301 302 304 303 301 299 298 298 298 298 297 297 297 297 298 298 299 300 300 301 302
319 318 318 316 314 314 313 314 314 312 311 308 307 297 297 297 297 298 299 299 301 301 298 297 297 297 297 296 296 295 295 295 294 294 294 295 296 296
317 307 299 297 297 303 311 310 308 307 304 302 295 293 293 294 293 292 292 295 295 299 300 297 296 296 296 295 295 294 293 293 293 292 292 292 291 292
293 291 290 291 290 289 294 291 295 294 293 291 288 289 288 288 288 290 289 289 290 294 292 293 293 293 293 294 294 294 293 293 292 292 292 291 291 292
288 287 287 288 287 287 287 286 286 287 286 286 285 284 284 285 285 284 285 285 284 292 287 286 290 289 290 290 292 292 292 292 293 293 292 292 291 291
286 286 285 286 286 286 285 286 286 286 284 285 283 283 283 284 285 284 284 284 284 287 287 284 286 285 288 290 291 291 292 292 292 291 291 291 290 289
284 284 284 284 285 285 285 284 283 283 283 284 283 283 283 283 283 282 281 281 282 283 285 280 283 283 285 287 290 291 291 291 292 291 291 290 289 289
283 283 283 283 285 286 284 283 283 283 283 283 282 282 282 282 282 281 279 278 277 279 282 281 281 281 282 282 285 289 290 289 288 289 290 290 290 289
281 282 283 282 283 283 283 282 280 279 282 282 282 283 283 283 282 280 279 277 277 275 279 277 277 278 275 279 280 281 282 284 286 287 288 288 289 287
281 280 280 282 282 283 281 279 278 279 281 280 280 280 281 280 280 280 279 278 275 274 278 277 276 275 275 274 276 278 278 279 281 283 285 287 287 288
281 280 281 282 282 281 280 280 281 281 279 277 276 276 276 275 276 277 277 277 278 277 278 278 275 275 274 273 272 276 276 278 279 280 281 283 286 287
281 281 281 283 281 280 281 281 279 277 275 274 273 273 273 274 275 275 275 275 275 275 276 275 274 274 274 273 273 275 275 276 278 279 279 280 281 283
282 281 280 281 280 280 279 278 277 275 274 272 271 272 273 272 271 272 271 271 270 270 274 275 275 274 272 273 273 273 273 272 275 276 277 278 280 281
281 279 277 277 276 275 275 274 274 273 271 270 270 270 270 270 269 270 270 269 267 268 269 272 273 273 273 272 270 271 272 273 275 275 275 274 278 280
277 275 273 272 271 271 271 271 271 269 270 270 268 268 268 267 268 269 269 267 266 267 267 269 269 268 269 271 274 271 271 270 271 272 273 273 274 277
273 272 270 268 268 270 269 269 268 268 270 268 267 267 267 267 266 266 266 266 266 266 267 268 268 268 265 263 269 274 269 270 270 270 272 273 273 275
271 270 268 267 268 268 268 268 267 267 267 267 266 265 263 265 265 265 265 264 265 266 266 267 267 267 265 264 265 268 274 271 271 271 271 273 275 279
270 269 267 268 268 267 264 264 262 263 263 261 263 263 260 265 264 264 264 264 265 266 265 265 268 270 270 270 265 266 269 274 274 272 273 272 272 273
268 268 268 267 265 265 263 262 262 262 262 262 260 260 260 263 263 263 264 264 265 265 265 267 269 269 268 266 265 265 267 270 274 276 276 275 272 270
265 266 265 264 265 264 265 263 262 260 262 262 263 263 261 262 264 264 264 264 264 264 265 265 266 267 267 267 266 266 267 268 270 270 272 277 277 278

GFSNE_sfc_thetae_099.txt.gz
Theta_e
317 315 316 316 316 316 315 313 311 307 307 310 311 315 316 314 312 312 311 309 305 304 304 306 308 309 310 310 312 313 313 313 313 313 314 314 313 313
317 315 317 316 316 317 318 318 316 313 308 311 310 313 314 314 313 313 313 309 305 302 301 302 304 306 307 307 307 308 309 309 310 311 311 310 308 307
315 315 316 317 317 318 317 318 316 314 311 314 314 314 311 310 312 311 311 311 311 302 301 300 300 301 302 302 303 304 305 305 306 306 306 305 305 305
316 315 316 316 315 317 318 316 312 313 312 310 313 312 307 304 301 301 302 304 303 301 299 299 299 299 299 298 298 299 299 299 298 299 299 300 300 301
316 314 315 312 311 311 311 312 313 312 313 311 308 297 297 296 297 297 298 298 300 301 299 297 297 297 297 297 297 297 296 295 294 294 294 294 295 296
300 297 295 294 295 297 302 298 301 301 298 295 293 292 291 292 293 290 291 292 292 295 294 293 294 295 295 296 296 296 295 295 294 293 292 292 292 293
291 290 290 291 290 290 293 292 294 292 291 289 288 287 286 285 284 286 286 287 290 290 289 290 291 291 292 293 293 294 294 294 293 293 293 292 291 292
287 287 288 288 288 288 287 287 287 288 286 285 284 284 282 284 284 283 283 281 281 290 284 285 288 287 289 290 292 292 291 291 291 291 292 292 292 291
286 286 286 286 286 286 285 285 285 285 284 285 282 282 282 281 280 278 277 277 278 281 281 279 282 282 285 287 288 289 289 289 290 290 290 290 290 290
285 285 285 285 285 285 284 283 283 283 283 284 282 283 281 281 280 279 277 278 279 281 282 276 279 279 280 282 285 286 285 285 285 286 287 288 288 289
283 283 283 283 285 287 284 282 281 282 284 284 284 284 284 284 282 278 278 276 275 276 278 275 276 276 277 277 279 282 282 282 282 282 283 284 284 286
282 282 283 283 283 282 280 279 279 280 280 280 280 281 280 279 280 278 276 274 274 272 277 274 274 274 272 276 276 277 277 280 281 281 282 283 284 283
280 280 282 282 282 282 282 281 280 280 279 278 277 276 275 275 275 275 275 273 271 271 275 273 272 272 271 271 274 275 276 277 277 278 281 281 282 282
280 281 281 282 282 282 281 280 279 278 277 275 273 272 272 272 273 273 274 273 273 272 273 273 267 270 269 269 269 273 274 275 277 277 277 279 280 280
281 282 282 282 281 280 279 278 277 275 272 270 270 270 271 272 272 272 272 272 272 272 273 273 272 271 270 268 268 269 270 272 274 274 275 275 276 277
281 281 280 279 278 277 276 275 274 272 271 269 269 270 270 270 269 270 269 269 268 268 272 273 272 271 268 269 269 268 270 269 272 272 272 273 274 276
278 276 275 275 273 273 272 271 271 270 270 269 268 268 268 268 268 268 268 267 265 266 267 269 271 271 271 270 268 270 269 269 270 270 271 271 273 275
274 272 269 269 269 269 269 268 269 268 269 268 266 267 266 266 266 267 267 265 264 265 265 267 268 267 268 269 271 268 268 268 269 270 271 269 270 274
270 269 267 266 268 268 268 268 267 267 268 267 265 264 265 265 264 264 264 264 263 265 265 267 266 265 263 261 267 272 268 268 269 268 270 270 269 272
270 268 267 267 268 267 267 266 265 264 263 264 261 259 259 263 263 263 264 262 263 264 265 265 265 265 264 264 264 266 272 268 268 267 268 271 272 276
268 267 266 267 266 266 261 258 255 256 256 254 259 260 256 262 261 262 262 262 262 264 263 263 265 268 268 267 263 264 267 272 272 270 270 269 269 271
266 266 266 265 262 262 256 253 256 255 257 259 254 253 255 259 259 261 261 262 262 262 263 265 267 266 265 265 263 264 266 268 272 274 275 274 270 268
262 264 263 260 260 258 260 255 256 251 258 259 258 258 252 255 261 261 261 261 262 262 263 263 264 266 265 265 264 265 266 267 269 269 271 275 276 277

GFSNE_sfc_thetae_102.txt.gz
Theta_e
316 316 315 316 314 315 313 312 309 304 304 307 308 313 315 313 312 313 313 308 305 304 305 306 308 310 311 312 313 314 315 315 317 317 318 317 317 317
317 316 315 315 314 314 315 316 314 312 307 309 309 310 312 314 314 313 314 309 305 302 301 302 303 305 307 308 309 310 311 312 313 314 313 312 312 313
315 316 316 316 316 316 314 315 314 313 311 313 313 312 309 311 309 309 307 307 305 299 298 298 299 300 300 301 302 304 305 306 307 307 308 308 308 308
315 313 315 316 315 316 315 314 314 315 313 312 315 304 300 299 300 300 300 301 301 300 298 297 297 297 297 297 298 299 299 299 299 298 297 298 299 300
315 315 315 312 312 310 310 313 313 312 311 308 299 296 295 295 295 296 295 295 297 297 295 294 295 294 295 294 295 296 296 296 295 294 294 294 294 295
302 299 297 297 297 299 302 298 300 298 297 296 292 291 291 291 289 288 288 290 291 293 292 292 292 292 292 292 292 293 293 292 292 293 292 292 291 292
292 291 291 291 290 290 293 291 293 292 290 289 287 286 285 284 283 285 284 285 288 286 283 285 286 288 288 288 290 289 290 290 290 290 291 291 291 292
288 288 288 289 288 288 288 287 287 288 286 286 284 282 282 282 283 281 279 278 278 284 280 280 283 282 284 285 285 285 287 287 287 286 286 287 288 289
287 287 286 287 286 286 285 285 285 285 284 284 281 281 280 280 280 277 277 275 275 279 278 277 279 278 279 281 282 284 285 284 283 283 283 283 284 284
286 286 285 285 285 284 283 282 282 283 282 282 281 280 279 279 279 279 278 277 278 278 277 272 276 275 276 277 281 282 282 281 281 281 281 282 282 283
284 284 285 284 286 286 282 281 281 281 284 284 282 282 281 280 279 276 274 273 271 274 275 272 273 273 274 274 276 278 279 279 279 280 280 281 281 282
282 282 282 282 282 283 281 280 278 278 279 278 277 276 277 277 277 275 273 270 270 269 273 270 271 270 268 273 273 274 274 277 278 278 279 280 280 278
280 280 281 283 283 282 281 279 278 279 277 275 274 274 274 273 273 273 273 271 269 268 272 270 269 269 269 269 271 272 272 272 273 274 277 278 278 278
280 280 282 282 281 280 279 278 277 276 274 273 272 271 270 270 271 272 272 272 272 270 272 272 264 269 267 266 266 270 270 272 272 272 274 275 275 276
281 282 282 280 279 278 277 276 274 273 271 269 269 268 270 270 271 271 271 271 271 271 272 272 270 270 268 266 266 267 268 270 273 271 271 271 271 272
278 277 277 276 275 274 273 273 272 271 270 268 268 269 269 269 268 269 267 268 267 267 270 271 271 270 267 268 268 267 269 267 269 270 270 271 272 273
277 276 274 273 272 271 270 270 271 270 268 268 267 267 267 267 266 267 267 266 264 264 265 268 270 270 270 269 266 267 267 268 269 269 269 269 271 272
273 270 269 269 268 268 267 268 268 268 268 268 266 266 265 265 265 266 266 264 263 264 264 266 266 265 266 268 270 267 267 267 268 269 269 267 268 270
269 268 267 267 267 268 267 267 266 267 267 265 264 263 263 264 262 262 262 262 262 263 264 265 265 264 261 259 266 271 266 267 267 267 268 268 267 269
269 266 265 265 267 267 266 265 265 264 263 263 260 257 256 261 260 262 262 261 261 263 263 264 264 264 262 261 262 265 271 267 267 267 267 269 271 273
267 267 266 265 265 264 262 260 257 256 254 253 256 257 251 258 258 260 260 260 261 262 261 262 264 267 266 266 262 263 266 271 271 269 269 268 268 269
266 265 265 264 263 261 256 252 255 256 256 257 251 250 249 254 255 258 259 259 260 261 262 263 265 265 264 263 262 262 264 267 271 273 274 274 269 267
263 263 261 259 258 256 258 255 255 250 255 255 254 255 248 253 258 258 258 259 260 260 260 261 262 264 263 263 262 263 264 266 268 270 272 276 276 276

GFSNE_sfc_thetae_105.txt.gz
Theta_e
315 315 315 315 316 316 314 312 309 302 303 306 307 312 314 313 311 312 311 309 305 303 302 303 305 308 309 310 311 313 315 316 317 318 318 319 320 321
316 315 315 315 315 314 314 314 312 311 307 307 308 309 310 311 311 311 311 306 300 299 299 299 300 301 301 302 303 304 306 307 309 311 313 314 316 317
316 315 315 315 315 314 314 314 313 313 310 312 310 306 302 305 303 303 303 302 302 297 296 296 296 296 296 297 297 298 299 300 301 302 302 303 304 305
315 314 314 315 314 315 314 313 313 312 312 310 310 300 297 299 298 297 297 298 298 296 294 294 293 293 294 293 294 294 294 293 294 295 296 296 297 297
314 314 315 314 314 314 311 311 311 310 311 310 301 295 293 293 293 294 292 292 295 293 292 290 291 291 291 292 292 291 290 291 291 291 291 291 292 293
309 304 300 301 302 302 303 302 300 300 298 296 292 290 290 289 288 286 287 288 289 286 287 287 288 288 289 289 287 287 287 289 289 288 287 287 287 289
294 292 292 292 291 293 296 293 295 293 292 290 287 286 284 283 282 283 282 284 285 283 283 283 285 284 282 282 283 284 285 287 285 285 284 284 284 285
290 289 289 289 288 288 287 287 287 289 287 285 283 280 280 281 281 279 279 278 278 281 278 280 281 279 278 279 281 283 284 283 283 282 282 282 282 282
288 287 287 287 286 285 285 285 284 284 283 283 280 280 278 279 279 278 277 276 276 277 275 275 276 275 277 278 280 282 281 281 280 280 281 281 281 281
287 286 285 284 284 283 283 282 282 282 282 282 280 279 278 278 278 277 276 275 276 275 274 271 275 272 274 274 279 279 279 279 279 279 279 279 279 280
285 285 285 284 285 285 282 281 280 279 281 281 280 280 279 278 277 275 272 272 271 273 272 270 271 270 271 272 274 277 277 277 277 277 277 278 278 279
282 282 283 283 284 283 281 280 277 277 276 275 275 275 275 275 275 273 272 269 269 268 271 269 269 269 266 272 272 272 272 275 276 276 277 277 278 275
281 281 282 283 282 282 280 278 277 277 275 275 274 273 272 272 272 272 272 270 268 267 271 269 268 268 267 267 269 270 270 271 271 272 275 276 276 275
280 280 281 281 280 279 278 277 277 275 274 272 270 270 270 270 270 271 271 271 271 270 271 271 264 268 266 265 264 269 269 270 271 271 273 273 274 274
280 280 280 279 278 277 276 275 273 272 271 269 268 268 269 270 270 270 270 270 270 270 271 271 269 269 267 265 265 266 266 269 270 270 270 270 270 271
277 275 275 275 273 273 273 272 271 271 269 268 268 268 268 268 267 268 267 267 265 266 269 270 269 269 266 267 267 266 267 266 269 269 270 270 270 271
275 274 273 272 270 270 270 270 270 269 268 268 267 266 266 266 266 267 266 265 263 263 264 267 269 269 268 267 265 266 266 267 268 268 268 267 269 270
273 270 269 269 268 268 268 268 268 267 267 266 265 265 264 263 263 264 264 262 262 263 263 264 265 264 265 266 269 266 266 266 266 268 268 266 267 269
269 268 266 266 267 267 267 266 265 266 266 265 263 262 262 263 262 261 261 261 261 262 263 264 263 262 260 257 264 270 265 266 266 266 267 267 266 268
268 266 265 265 266 266 265 265 264 264 263 263 260 258 256 260 259 260 261 258 260 261 261 262 262 262 260 259 260 263 270 267 266 265 266 268 270 273
267 266 265 265 264 264 262 261 259 258 256 255 257 256 249 257 256 258 258 258 258 260 260 261 262 265 264 265 261 262 265 270 271 269 268 268 268 270
266 265 265 264 263 261 258 254 255 255 255 256 249 248 248 252 253 255 255 256 258 259 260 261 263 263 263 262 260 261 264 267 271 274 275 275 270 266
263 263 262 261 259 258 260 256 256 250 254 254 253 253 246 251 256 256 256 257 258 258 259 260 261 262 261 261 261 262 264 266 268 269 273 278 277 277

GFSNE_sfc_thetae_108.txt.gz
Theta_e
314 314 314 315 315 316 315 313 309 304 305 309 309 313 314 314 311 313 310 301 300 299 300 301 302 303 303 303 304 304 305 306 307 308 309 310 312 313
315 314 314 314 315 314 314 313 312 310 306 309 310 311 309 310 306 308 304 300 297 296 296 297 297 298 298 298 298 299 299 299 300 300 301 302 304 304
315 314 314 315 314 313 313 313 312 312 309 312 311 305 302 303 301 302 302 297 296 295 294 294 294 294 294 294 294 294 294 294 295 295 296 297 297 298
315 314 314 314 313 314 314 313 313 314 312 310 310 300 297 298 296 294 296 297 295 292 290 292 291 291 292 290 289 288 289 290 291 291 291 291 292 293
315 314 314 314 313 314 313 313 312 311 312 311 310 295 291 292 292 292 290 293 290 289 288 289 289 290 287 287 286 286 287 288 287 287 286 286 286 287
313 311 308 308 308 307 307 307 305 304 301 299 293 289 289 288 287 285 285 287 284 285 285 287 286 285 284 284 283 284 286 287 285 284 284 283 283 284
297 294 293 293 292 294 299 298 299 297 295 292 287 286 283 281 280 281 282 283 280 281 281 283 282 281 281 280 281 283 284 283 283 282 282 282 282 282
291 290 289 289 288 288 287 287 288 291 288 284 282 280 279 280 280 279 279 279 278 279 277 279 280 278 277 278 280 282 281 281 281 281 281 281 280 280
290 287 286 286 286 285 285 284 284 283 282 282 279 278 277 278 279 277 276 276 276 275 275 275 277 274 275 276 279 281 280 280 279 279 279 279 279 279
288 287 285 284 284 284 282 280 280 279 279 279 277 277 276 277 277 276 275 275 276 274 273 271 274 272 274 275 278 279 279 278 278 278 278 278 278 278
285 285 284 284 285 285 280 278 278 278 281 281 280 279 278 277 276 274 272 272 271 272 272 271 272 271 272 273 275 277 276 276 276 277 277 277 278 278
283 284 284 283 284 283 280 278 276 276 276 275 274 275 275 274 275 273 272 270 269 269 271 269 269 269 267 272 273 273 273 274 275 275 276 276 277 276
282 281 282 283 282 281 280 277 276 276 275 274 273 273 272 272 272 273 272 271 269 268 271 270 268 268 268 267 269 271 272 272 272 273 274 275 276 275
279 280 281 281 280 279 278 278 276 274 273 272 270 270 269 269 270 271 271 271 271 270 271 271 268 267 266 266 265 270 271 272 272 272 272 273 274 274
279 280 280 279 278 276 276 275 273 272 270 269 268 268 268 270 270 270 270 270 270 270 271 270 269 268 268 266 266 267 267 269 271 271 271 272 271 272
276 274 274 274 273 272 272 272 271 271 270 268 267 268 269 268 267 268 267 267 266 267 269 270 269 269 266 267 267 266 268 266 270 270 270 271 271 272
274 273 272 271 270 270 270 270 269 269 268 267 267 266 266 266 266 266 266 265 264 264 265 267 268 268 268 267 266 267 267 268 269 269 269 268 270 272
272 270 269 269 268 268 267 267 267 267 267 266 265 265 264 264 264 264 264 263 262 263 263 265 265 265 266 268 270 267 267 267 268 268 269 267 267 271
270 268 267 267 267 267 267 266 265 266 265 264 263 262 263 263 263 262 262 261 261 262 263 264 264 263 260 259 265 270 266 266 267 267 268 269 268 270
269 267 267 267 267 266 266 265 264 264 263 261 260 258 259 261 260 260 261 259 260 261 262 264 263 263 261 260 261 265 270 267 267 267 268 271 272 274
267 266 266 266 265 264 262 262 261 260 259 258 258 258 255 259 258 259 258 257 258 261 260 261 263 265 265 265 261 263 266 271 272 271 272 271 270 271
266 266 265 264 263 262 261 260 259 257 258 258 255 254 253 257 257 257 257 257 259 260 260 262 264 264 263 262 261 262 265 268 273 274 276 277 273 270
264 264 263 262 262 261 261 259 258 257 258 258 258 257 252 256 257 257 257 258 259 259 260 260 261 262 262 262 262 263 264 267 269 270 273 281 279 278

GFSNE_sfc_thetae_111.txt.gz
Theta_e
317 319 319 319 321 322 321 321 316 308 309 315 317 318 318 318 313 319 309 299 299 299 300 301 302 302 302 301 301 301 302 302 302 302 302 303 304 305
318 318 319 319 320 320 320 319 319 314 308 316 315 313 313 309 308 305 299 298 296 295 296 296 296 297 296 295 294 294 295 296 297 297 297 297 298 299
319 320 318 318 319 319 318 316 316 314 310 314 315 311 308 307 302 301 298 294 293 293 293 293 293 291 290 289 289 289 291 292 291 291 291 291 292 293
316 315 315 314 315 317 314 315 314 313 312 310 312 301 298 296 295 295 295 292 290 291 291 292 290 288 287 286 286 287 288 288 287 287 287 287 287 288
315 315 314 314 314 314 314 314 315 313 313 312 309 296 291 293 291 291 291 289 288 288 289 288 286 286 285 284 284 286 287 286 285 284 284 284 284 285
316 315 314 314 313 313 313 313 310 310 308 305 296 290 289 287 286 287 284 284 282 284 286 285 284 283 282 282 283 285 284 283 283 282 282 282 282 282
305 301 299 298 295 298 303 304 303 302 299 296 289 286 284 282 282 282 283 282 280 280 281 282 281 281 280 280 281 283 282 282 281 281 281 281 281 281
295 292 292 290 289 288 288 287 292 299 294 289 284 282 280 281 281 280 280 280 279 278 277 280 280 279 279 280 280 282 281 280 280 280 280 280 280 280
292 289 288 287 288 286 285 284 283 284 284 285 280 279 278 280 279 278 277 277 277 276 277 278 278 277 278 278 278 280 280 279 279 279 279 279 279 279
291 289 287 285 285 284 282 280 280 280 280 279 278 278 278 278 278 278 277 278 278 277 276 275 277 277 278 279 277 278 279 278 278 278 278 278 278 278
286 286 285 284 284 285 281 279 278 279 281 281 280 279 278 278 277 277 275 276 274 275 274 274 276 274 276 277 279 278 277 277 277 277 277 278 278 278
285 285 285 284 283 282 280 278 275 275 275 274 274 275 276 276 275 275 275 273 273 273 273 273 273 273 273 277 277 277 277 277 277 277 277 277 277 277
283 283 283 283 282 281 280 277 275 275 274 274 274 273 274 274 274 274 275 275 273 272 273 274 272 272 272 272 274 276 276 277 277 277 277 277 277 276
281 281 282 282 281 280 278 278 277 275 274 273 272 271 271 272 273 273 274 274 274 273 273 274 272 271 271 271 271 275 276 276 277 276 277 277 276 276
280 281 281 280 279 277 277 276 274 273 272 272 270 271 272 272 272 272 273 273 273 273 273 273 272 272 272 271 271 273 273 275 276 276 276 275 275 276
276 274 274 274 273 273 274 274 273 273 271 270 270 271 271 271 271 272 271 272 272 272 272 273 272 272 271 272 272 272 274 272 275 275 275 275 277 278
274 273 272 272 271 271 271 271 271 271 271 271 270 270 270 270 270 271 270 271 271 270 271 272 273 273 273 272 271 273 273 274 275 274 274 274 277 280
273 271 271 270 270 270 269 269 269 269 270 270 269 269 269 269 270 270 270 270 270 270 270 271 271 271 273 274 272 272 273 273 273 274 274 274 276 280
272 272 270 270 270 270 270 269 268 268 269 268 269 268 269 269 270 269 268 269 269 269 270 270 270 269 268 267 272 272 270 271 272 273 275 275 275 279
272 271 270 270 270 269 269 268 268 268 267 267 267 266 267 268 268 267 268 267 268 268 269 270 270 268 266 266 266 270 272 271 272 273 275 278 281 280
270 269 270 270 270 269 268 267 266 266 266 266 266 265 265 267 266 266 266 263 264 268 267 268 268 267 269 270 269 271 273 274 274 274 276 277 280 280
270 269 269 269 268 268 267 267 266 266 266 266 265 265 266 267 266 265 265 266 267 267 267 268 269 269 269 267 267 268 272 274 277 277 278 277 279 277
268 269 268 268 268 268 267 267 267 266 266 265 265 265 264 265 265 266 266 266 265 265 266 266 268 268 267 267 267 269 270 272 275 277 280 281 281 281

GFSNE_sfc_thetae_114.txt.gz
Theta_e
327 328 325 324 326 325 324 323 318 312 313 316 320 322 319 317 313 317 307 298 298 298 300 301 301 301 299 299 298 299 299 300 300 299 299 299 300 301
322 322 323 323 324 325 325 323 322 318 313 316 317 318 312 309 304 304 299 296 295 295 296 295 294 293 293 292 293 294 295 294 294 293 293 293 293 294
321 321 321 323 323 322 323 322 320 319 315 317 319 311 306 303 300 297 295 294 294 293 292 291 290 289 288 288 288 289 290 290 289 289 289 289 289 290
319 318 319 320 321 322 321 320 320 320 317 313 312 301 297 297 297 294 292 291 291 292 290 288 288 286 286 285 287 288 288 286 285 285 285 285 286 287
317 317 319 320 320 320 320 317 318 314 314 312 309 295 294 293 292 290 289 288 289 290 287 286 286 285 284 284 286 286 285 284 283 283 283 283 284 284
316 316 315 316 315 314 313 314 313 312 312 312 304 292 290 288 290 286 284 284 283 286 286 285 284 283 282 282 283 284 283 282 282 282 282 282 282 282
312 311 307 304 300 303 310 311 311 311 309 305 293 288 286 284 285 285 284 281 279 280 282 282 282 282 281 281 282 283 282 281 281 281 281 281 281 281
302 296 294 292 290 289 289 287 290 303 300 294 288 286 282 282 283 283 283 281 278 278 278 281 281 281 283 284 279 281 281 281 281 280 280 280 280 280
296 292 290 289 288 287 286 285 284 284 285 290 286 283 281 281 281 279 279 279 278 277 278 280 282 280 282 281 278 280 281 280 280 280 280 280 279 280
293 291 289 288 289 287 284 282 281 281 282 282 280 280 280 281 281 280 279 277 277 277 279 278 280 278 282 283 279 279 280 280 279 279 279 279 279 279
291 290 288 286 286 287 283 280 279 279 282 282 281 281 280 280 280 280 279 279 277 277 277 279 279 278 280 281 282 280 280 280 279 279 279 279 279 279
287 286 286 285 284 284 282 279 276 275 275 275 276 276 277 277 278 279 279 277 277 277 276 277 278 277 276 280 281 281 281 281 280 280 280 280 280 280
285 283 284 283 283 282 280 277 275 275 275 275 275 275 275 275 277 277 279 278 277 275 274 277 276 277 277 276 279 281 281 281 282 282 281 281 280 280
282 282 282 282 281 280 278 278 277 276 275 274 274 274 274 274 275 276 276 276 277 276 276 277 277 276 275 275 276 279 281 281 282 281 282 281 281 281
281 282 282 281 280 278 278 277 276 275 275 274 274 273 274 275 276 276 276 276 276 275 276 276 276 276 276 275 276 277 277 280 281 281 281 281 281 283
277 275 275 276 275 275 275 276 276 277 276 274 274 273 274 275 274 276 275 276 277 276 275 276 276 276 276 276 276 276 279 277 280 281 280 281 283 285
274 273 273 273 272 272 272 273 274 274 273 274 273 273 273 273 273 275 275 276 276 275 276 277 277 278 278 277 276 277 278 278 279 279 279 280 283 284
274 272 272 273 272 272 272 271 272 272 273 274 273 273 274 274 274 275 276 276 276 275 275 275 276 276 277 279 276 276 277 277 278 279 280 279 280 284
276 274 273 273 273 272 273 272 270 271 273 274 274 274 274 274 275 275 275 276 275 275 275 276 275 274 272 272 276 273 274 275 276 277 278 279 279 282
276 275 275 274 274 274 273 272 272 273 272 272 273 273 273 274 273 273 273 272 273 274 274 276 275 273 270 270 271 275 277 276 276 276 277 279 283 284
275 275 275 274 274 273 273 273 272 272 271 272 272 272 273 274 272 273 273 268 268 273 272 273 273 271 274 275 274 276 278 278 278 276 277 277 280 282
274 273 273 273 272 271 271 271 271 271 271 272 271 272 273 273 272 272 271 272 272 272 272 273 274 274 274 272 272 273 276 279 280 281 280 278 279 278
273 272 272 272 272 272 272 272 272 272 271 271 271 271 271 272 271 272 272 271 271 270 271 271 273 274 273 273 272 274 275 276 279 280 282 282 281 282

GFSNE_sfc_thetae_117.txt.gz
Theta_e
322 322 322 324 328 327 326 325 318 313 314 320 319 324 323 319 311 308 299 298 299 300 300 299 299 298 298 299 299 300 298 297 296 296 295 295 295 295
323 322 322 324 325 328 327 325 325 320 313 319 320 315 313 306 301 300 297 297 295 294 294 293 293 293 292 292 293 293 293 293 292 292 291 291 292 292
321 322 322 324 322 324 326 324 323 321 316 317 314 310 305 301 297 297 295 294 293 292 291 290 289 288 288 289 290 290 289 288 288 288 288 288 289 290
320 321 322 323 323 322 322 321 321 320 317 313 312 303 299 299 296 293 292 293 290 290 289 288 287 286 286 288 288 287 286 285 285 285 285 285 286 287
321 322 322 322 321 322 321 320 320 318 318 314 309 298 295 294 291 290 289 290 289 289 287 286 285 284 284 286 286 285 284 283 283 283 283 283 283 284
321 320 320 319 317 319 318 320 319 318 315 312 303 295 292 292 290 285 283 285 284 286 286 285 284 283 282 282 284 284 283 283 282 282 282 282 282 282
312 313 312 311 309 312 316 316 315 311 308 309 297 290 287 286 287 286 283 280 279 280 282 282 282 282 282 282 283 283 282 282 282 282 281 281 281 281
310 301 299 296 292 291 290 289 294 310 309 307 293 290 285 285 285 285 281 279 277 280 280 281 282 282 283 283 280 281 282 281 281 281 281 281 281 281
306 298 293 291 291 289 287 286 285 285 284 295 289 286 283 283 284 283 283 282 277 277 278 280 282 280 283 283 281 280 280 281 281 281 281 281 281 281
300 300 295 289 288 287 285 282 281 282 282 283 283 282 283 283 283 283 279 277 277 277 279 278 282 280 282 284 282 280 281 281 281 281 281 281 281 281
291 291 290 288 288 288 283 280 280 280 283 283 283 283 282 283 282 280 278 278 276 276 279 279 280 278 280 281 282 282 282 281 282 282 282 282 282 282
286 286 286 286 286 285 283 280 277 277 276 276 276 278 279 281 281 282 282 279 278 276 276 278 277 277 277 281 281 282 282 284 283 283 282 283 282 282
284 283 284 284 284 283 281 278 275 276 275 275 275 275 276 277 278 280 281 281 279 274 275 279 277 277 277 276 279 281 282 283 283 283 284 284 283 282
282 282 283 282 281 280 279 279 278 276 275 274 274 273 274 275 276 277 277 278 278 277 277 278 277 276 275 276 276 280 281 282 283 282 283 284 284 285
281 282 282 281 280 279 279 278 277 276 276 275 274 274 275 276 276 276 277 277 276 276 276 277 276 276 276 275 276 277 278 281 283 283 282 282 283 285
278 277 276 276 276 276 276 277 277 277 276 275 275 275 276 276 275 276 275 277 277 276 276 277 278 278 276 277 277 277 279 278 281 281 281 282 284 285
275 275 274 273 273 273 273 274 275 275 274 275 274 275 275 275 275 277 277 277 276 276 277 278 279 279 279 278 277 278 278 278 279 279 280 280 283 285
275 273 273 274 273 274 274 274 274 275 275 275 275 275 275 275 275 276 277 277 276 275 276 276 277 277 278 279 279 277 277 277 278 278 279 278 279 284
277 276 275 276 274 274 274 274 273 274 275 275 276 276 276 276 277 276 276 276 276 276 276 277 276 275 272 272 277 275 275 276 277 277 278 279 279 282
278 276 276 277 276 275 275 274 275 276 275 275 275 276 276 276 275 275 274 274 274 275 275 276 276 273 271 271 271 275 278 276 277 276 277 279 282 283
278 277 277 277 276 276 276 276 275 275 275 275 274 274 275 275 274 274 273 271 271 274 273 273 275 274 276 277 274 275 279 280 280 278 278 277 278 281
277 276 276 276 276 275 275 273 273 274 274 274 273 274 274 274 273 273 272 273 273 273 273 274 276 276 275 274 273 274 276 280 282 282 282 280 279 276
275 275 275 275 274 274 274 274 274 273 273 273 273 272 273 272 273 273 273 273 272 271 272 272 274 275 275 275 273 274 276 277 278 279 281 284 282 281

GFSNE_sfc_thetae_120.txt.gz
Theta_e
322 321 321 321 322 320 318 318 313 308 310 314 314 316 314 310 303 301 300 300 300 299 300 300 300 301 301 301 300 299 298 297 296 295 294 294 294 295
321 320 320 319 321 321 321 320 316 314 309 314 313 310 305 301 299 297 297 296 295 295 295 294 294 294 295 295 295 294 293 292 291 291 290 291 292 292
321 320 319 319 318 319 319 319 316 316 311 313 312 305 302 298 296 296 295 293 292 291 291 290 290 290 291 292 291 290 289 288 287 287 288 288 289 289
320 319 318 320 318 319 318 317 315 315 313 309 307 301 299 296 294 292 293 292 290 290 289 288 288 288 290 289 288 287 286 285 285 285 285 285 286 286
319 319 318 318 318 319 317 316 315 314 314 312 305 298 294 293 290 290 289 288 289 289 288 286 286 286 288 287 286 285 284 284 283 283 283 283 283 284
319 319 319 319 318 317 316 315 315 313 311 310 300 294 292 292 289 286 285 287 286 287 287 285 285 283 284 286 286 284 283 283 283 283 282 282 282 283
315 316 316 314 309 312 314 313 313 311 308 306 297 291 287 287 287 286 284 281 280 282 283 282 283 283 283 284 284 284 282 282 282 282 282 282 282 282
308 303 301 299 296 294 292 290 295 307 306 303 295 294 288 287 288 286 281 279 278 280 281 282 282 282 283 282 282 282 282 281 282 281 282 282 282 282
305 300 297 294 292 289 287 287 286 286 284 297 293 290 286 286 287 283 283 282 278 278 280 280 282 280 282 283 283 282 281 281 281 281 282 282 282 282
303 301 298 291 290 288 285 283 282 283 283 285 285 284 285 286 287 285 280 277 277 278 280 278 281 280 281 282 283 282 282 281 281 282 282 282 283 283
291 293 292 289 289 290 285 281 281 282 285 286 286 285 285 284 283 281 278 277 275 276 279 279 279 278 279 280 280 283 282 281 282 283 283 283 283 283
286 286 287 286 285 285 283 281 278 278 278 278 278 280 282 282 283 283 282 277 276 274 277 277 277 277 276 279 279 280 280 284 284 284 284 284 284 279
284 284 284 285 284 283 281 278 276 277 276 276 276 276 277 278 279 280 279 281 276 273 276 279 277 277 277 276 278 279 280 280 279 281 284 284 284 284
282 282 282 282 282 281 279 279 278 276 276 275 274 274 274 274 276 277 277 277 277 276 277 279 277 275 275 275 275 278 278 279 279 279 280 282 283 285
281 282 282 281 280 279 279 279 277 277 275 274 273 273 274 276 276 276 276 276 276 277 277 277 276 276 276 275 274 276 276 278 279 278 279 278 278 279
279 277 277 278 278 278 277 277 277 276 275 274 274 274 276 276 275 276 276 276 275 275 276 277 277 277 276 276 276 275 276 275 277 277 278 278 279 280
276 275 274 274 274 274 274 275 275 275 274 275 274 274 274 275 275 277 277 277 276 275 276 277 278 279 278 277 274 275 275 276 275 276 276 276 278 279
275 273 273 274 273 273 273 274 275 274 274 275 275 275 274 274 275 276 277 276 275 275 275 275 275 275 276 277 279 275 273 273 273 276 276 274 276 279
275 274 273 273 273 274 274 274 273 274 275 274 274 274 274 274 274 273 273 274 274 273 274 274 274 272 269 265 275 277 272 273 273 274 274 274 275 277
276 274 274 274 273 273 273 273 274 274 274 274 273 272 272 273 273 272 272 270 272 273 273 274 272 271 267 266 267 271 279 272 270 269 272 274 277 280
276 275 274 274 273 273 273 273 272 272 272 271 270 272 271 272 271 272 270 270 270 273 272 272 272 273 273 272 266 268 273 279 279 272 271 273 273 274
275 274 274 274 274 273 271 270 271 271 269 269 269 269 269 269 269 269 269 268 270 270 271 272 274 274 273 272 269 265 269 271 278 281 282 280 275 272
273 273 273 272 272 271 271 270 270 268 269 269 269 269 268 267 269 269 269 269 270 269 270 269 271 272 272 272 269 267 268 270 275 273 274 280 282 282

GFSNE_sfc_thetae_123.txt.gz
Theta_e
321 321 321 321 321 319 318 316 311 306 308 312 311 308 305 303 302 303 303 302 301 301 302 304 305 306 306 304 303 301 299 298 296 295 294 295 295 295
322 321 321 321 320 319 318 318 315 313 308 312 312 305 302 300 300 298 298 298 297 297 297 299 300 300 299 298 297 295 294 293 292 292 292 291 291 292
322 321 321 321 320 319 319 317 316 315 311 309 307 301 298 297 296 296 295 293 293 293 293 293 294 295 294 293 292 291 290 289 288 288 288 288 289 289
321 321 320 321 319 318 317 316 316 315 313 306 303 300 297 295 295 293 292 291 290 291 291 291 291 293 291 290 288 287 286 286 285 285 285 285 286 287
320 320 320 319 317 317 316 315 315 315 314 308 303 297 294 293 291 291 289 288 289 290 288 288 290 290 289 288 287 285 285 284 284 283 283 283 284 284
319 320 320 319 315 316 316 314 312 312 311 309 302 294 293 293 290 287 285 287 286 287 287 285 286 288 288 287 286 285 284 283 283 283 282 282 282 283
316 318 317 315 308 313 317 312 311 309 309 306 298 291 289 287 288 287 285 283 282 284 283 283 283 282 284 286 285 284 283 282 282 282 282 282 282 282
308 306 312 306 302 300 299 298 301 308 307 302 295 293 288 288 288 287 282 280 279 282 283 281 282 281 282 283 285 284 282 281 281 281 282 282 282 282
304 302 297 297 296 292 289 288 287 287 286 299 293 292 288 289 289 286 283 283 279 280 283 279 281 280 283 283 284 283 282 281 281 281 282 282 282 283
302 301 297 292 291 290 287 285 284 285 284 285 286 285 287 289 290 288 283 278 278 279 280 277 280 279 281 282 284 283 283 282 281 282 282 282 283 283
291 294 293 289 289 291 286 283 283 283 286 287 286 286 286 285 284 282 279 278 275 276 278 279 279 278 280 280 282 284 284 283 283 283 283 283 283 283
286 286 287 287 287 287 287 284 280 278 279 280 280 281 282 282 283 283 282 277 275 274 277 277 277 278 277 279 279 280 280 284 283 284 283 284 284 281
285 284 285 285 286 285 284 282 279 278 278 278 278 278 278 278 278 279 282 280 275 274 278 279 277 277 277 276 278 279 279 279 279 280 283 283 284 283
282 282 283 284 283 282 281 280 279 278 277 276 275 275 275 275 276 276 277 277 278 278 279 280 276 276 275 274 274 277 278 278 279 279 279 281 282 283
282 283 283 282 281 280 280 279 278 277 276 274 273 273 274 275 276 276 276 277 277 278 278 278 276 276 276 275 275 276 276 278 278 278 277 278 277 278
280 278 278 278 278 278 277 277 277 276 274 273 273 274 276 276 275 276 275 275 274 274 277 278 277 277 276 276 276 275 276 274 276 276 277 277 279 279
277 276 276 275 275 274 275 275 275 275 274 274 274 274 275 275 276 277 277 277 274 274 275 277 278 278 277 276 273 274 275 275 275 276 276 276 278 278
276 274 273 274 273 274 273 273 274 275 275 275 275 275 274 274 275 276 276 274 273 273 273 274 273 272 276 277 278 274 273 273 274 276 277 274 275 277
274 274 273 273 274 274 274 274 273 275 276 275 274 274 274 274 273 272 271 271 271 271 273 273 271 269 268 261 273 277 272 273 272 272 274 273 273 276
275 274 273 273 273 273 273 273 273 273 273 272 271 270 270 271 270 270 269 266 268 271 271 271 270 270 267 265 265 270 278 272 270 269 272 273 275 279
274 273 273 273 273 273 272 271 271 270 270 270 269 269 267 270 267 267 267 266 267 271 270 270 271 272 272 270 263 266 270 278 277 270 269 268 270 272
273 273 273 272 271 271 271 271 270 270 270 269 266 266 266 268 266 266 265 266 267 267 269 270 273 273 271 271 268 263 268 269 275 279 281 278 273 270
271 272 271 271 271 270 271 269 269 268 268 267 267 266 264 264 266 266 266 267 267 266 268 267 269 270 270 270 267 265 265 266 271 271 270 277 279 280

GFSNE_sfc_thetae_126.txt.gz
Theta_e
322 320 321 321 321 319 317 315 311 306 308 310 308 305 305 304 305 306 305 303 303 304 306 307 308 309 309 309 307 305 303 301 299 297 297 296 296 295
323 320 320 321 321 320 318 316 314 311 308 311 308 303 302 300 301 300 300 300 300 300 301 302 303 304 303 302 300 298 297 296 294 294 293 293 293 292
323 322 320 321 320 320 319 317 314 313 310 306 302 299 298 297 296 296 296 295 295 297 297 298 298 298 297 296 294 293 292 291 291 290 290 290 290 290
321 322 320 320 320 320 319 317 315 315 312 304 299 298 296 295 293 292 291 292 293 293 293 295 295 293 292 291 289 288 288 287 287 286 286 286 287 287
320 320 321 321 319 319 319 316 316 314 314 306 301 296 293 293 291 290 289 289 290 292 292 293 293 291 290 288 287 286 285 285 284 284 283 284 284 285
318 320 321 320 319 319 318 316 315 314 311 308 303 295 293 292 291 286 285 287 285 287 287 289 289 289 289 287 286 285 285 284 283 283 282 282 283 283
316 318 319 316 311 314 317 314 314 312 309 306 299 292 289 288 288 287 285 285 284 285 283 283 284 285 286 286 285 285 283 283 283 282 282 282 282 282
311 311 312 306 306 300 300 300 309 311 307 303 300 297 291 290 289 288 283 282 280 284 282 281 283 281 284 285 285 284 283 282 282 282 282 282 282 282
305 301 300 300 296 292 290 289 288 289 294 302 298 299 291 292 291 287 285 284 281 282 283 279 282 280 282 284 284 285 283 282 282 282 282 282 282 283
302 301 294 292 294 292 290 287 286 286 287 288 292 288 289 292 293 291 287 280 281 281 283 277 280 280 282 282 284 284 283 283 282 282 283 283 283 283
292 294 293 290 290 293 289 285 284 284 287 288 287 287 287 287 286 284 281 280 276 277 279 279 279 279 280 281 282 284 284 284 283 283 283 284 283 283
287 286 287 288 287 289 289 286 282 281 281 281 280 281 283 284 284 286 284 281 276 275 278 277 277 278 276 280 280 280 281 285 283 284 284 284 284 281
285 284 285 286 286 287 287 286 282 280 280 279 279 278 278 279 279 280 281 281 277 275 278 279 277 278 278 276 278 279 279 279 280 281 283 283 283 283
283 283 284 285 285 284 282 282 281 280 279 278 277 276 275 276 276 278 279 279 280 279 280 280 277 277 276 275 275 277 278 279 280 279 279 280 281 282
283 284 284 283 282 281 281 281 279 278 277 275 274 274 274 275 277 277 278 278 278 279 279 279 278 277 276 275 274 275 275 277 277 277 277 277 277 278
279 278 278 278 278 277 277 277 277 277 276 274 274 275 276 275 275 275 275 275 274 274 277 278 278 277 275 276 275 274 275 273 275 275 276 276 277 278
277 277 276 276 275 275 275 275 276 276 275 275 275 274 275 275 276 276 277 275 273 273 274 277 278 278 277 276 272 274 274 273 273 274 276 275 277 277
276 275 274 274 273 274 274 274 275 275 275 275 275 275 275 275 275 275 276 274 273 273 272 273 273 272 275 276 277 273 271 271 270 274 276 272 274 276
274 274 274 274 274 274 274 274 274 275 276 275 275 274 274 274 274 273 273 273 272 272 271 271 270 268 267 260 272 277 270 271 272 271 273 272 271 275
274 273 273 274 274 274 274 274 274 274 274 273 273 272 272 272 272 271 270 268 270 270 270 269 268 268 265 263 263 268 276 270 267 266 268 271 274 278
273 273 273 273 273 273 272 272 272 271 271 271 270 270 269 270 269 269 269 269 269 270 269 269 270 271 270 267 262 264 268 277 275 267 268 267 269 271
273 272 272 272 272 272 271 271 271 270 269 269 267 268 268 269 267 267 266 266 267 267 268 269 272 271 269 269 265 259 266 268 274 277 278 275 268 265
271 271 270 271 271 270 270 270 269 269 269 268 268 267 266 266 267 266 265 267 266 265 266 265 267 268 268 269 265 264 263 263 268 269 270 276 276 277

GFSNE_sfc_thetae_129.txt.gz
Theta_e
323 321 321 322 322 319 318 316 312 307 307 309 307 306 307 306 306 307 307 305 305 305 307 309 311 312 312 312 312 310 307 304 302 301 300 299 297 296
323 321 320 322 322 320 319 317 316 313 308 311 307 303 304 302 303 302 303 303 301 302 302 304 306 307 306 305 304 302 301 299 298 296 295 295 294 293
323 322 321 321 321 321 319 317 316 314 310 304 301 301 299 299 297 297 298 298 299 299 299 300 300 300 299 299 298 296 296 295 293 292 292 292 291 291
321 321 321 321 320 320 318 316 315 315 312 303 299 297 296 295 294 293 293 294 294 297 297 297 297 295 294 293 292 291 291 290 289 289 288 288 288 289
321 321 321 321 320 320 320 318 317 315 314 303 299 296 293 293 290 290 289 290 293 296 295 294 293 292 291 290 289 288 287 286 285 285 285 285 285 286
317 318 319 320 320 319 319 318 317 315 313 306 301 296 293 292 291 287 286 288 286 289 291 291 291 291 289 288 287 286 286 285 284 284 283 283 283 284
313 315 316 314 309 312 319 319 318 314 310 307 299 293 290 289 289 288 285 284 284 285 285 286 287 287 287 287 286 285 285 284 284 283 283 283 282 283
311 312 313 307 305 300 300 304 311 314 309 305 301 296 292 291 290 288 284 283 281 284 284 282 284 284 285 285 286 285 284 283 283 282 282 282 282 283
309 306 302 300 299 296 292 295 295 299 303 307 301 299 292 293 291 287 286 286 283 283 283 280 282 281 284 285 285 285 284 283 282 282 283 283 283 283
303 302 297 293 292 290 289 288 287 287 290 295 302 298 297 296 293 292 289 282 283 283 283 277 281 280 282 283 285 284 283 284 283 282 283 283 284 283
293 293 294 289 291 293 289 286 285 285 288 289 289 290 292 293 289 287 284 283 277 278 280 279 279 279 280 281 283 284 284 283 283 283 284 284 284 284
286 286 287 287 288 290 289 288 285 284 284 285 284 283 285 286 286 289 288 287 277 276 279 278 278 278 276 281 281 282 282 284 285 284 284 284 284 281
285 285 285 286 286 287 288 287 285 283 282 281 280 280 280 280 280 282 283 284 280 277 280 280 278 278 278 277 279 280 280 280 280 281 283 283 283 282
283 284 285 286 285 285 284 284 283 282 281 279 278 277 277 277 278 280 280 280 281 280 281 281 278 278 276 275 275 278 279 279 279 278 278 280 281 282
284 284 284 284 283 282 282 282 281 280 279 277 275 275 276 277 278 278 279 279 279 279 280 280 280 279 278 276 275 275 276 277 277 276 277 277 277 277
278 277 278 278 277 277 277 278 278 278 277 275 274 275 276 276 275 277 275 275 275 275 278 279 279 278 276 276 275 274 276 273 275 275 276 276 277 278
278 277 277 276 275 275 275 276 276 276 275 275 275 275 275 275 275 276 276 275 274 274 274 276 278 278 277 276 273 274 273 274 273 274 275 274 276 277
277 275 274 275 274 274 274 274 275 275 275 276 275 275 275 275 275 275 276 274 273 272 272 273 275 274 275 276 277 273 272 272 271 274 275 272 273 276
275 274 274 274 274 274 274 274 274 275 276 276 275 275 275 275 274 274 274 273 271 271 271 272 272 271 269 265 272 277 270 272 271 270 271 271 270 274
274 274 273 274 274 274 274 274 274 274 274 274 274 274 274 274 273 272 272 271 270 271 270 271 270 269 266 265 267 270 276 269 267 266 268 270 273 278
273 273 273 273 273 273 273 273 273 272 273 272 272 272 271 271 270 271 270 270 270 270 269 269 270 270 270 268 264 265 268 276 273 268 267 265 269 269
272 272 272 272 272 272 272 272 272 271 271 270 269 269 269 270 269 269 269 268 268 267 268 269 271 270 270 269 265 259 265 266 272 276 276 274 266 263
270 271 271 271 271 271 271 270 270 269 269 269 268 268 268 268 268 268 267 267 266 265 266 265 267 268 267 268 264 263 263 263 267 267 268 274 275 277

GFSNE_sfc_thetae_132.txt.gz
Theta_e
323 323 322 322 322 322 319 317 314 307 307 311 310 312 316 314 313 314 315 308 306 306 306 309 312 314 314 315 315 315 313 310 307 306 304 302 300 299
323 322 322 323 322 322 319 318 317 314 309 312 309 305 307 305 307 308 308 306 304 303 303 306 307 309 309 309 308 307 305 304 303 301 299 298 297 296
323 322 321 322 321 321 320 319 316 316 312 304 302 301 300 301 300 301 303 302 303 301 301 302 302 302 302 302 301 301 300 299 298 297 296 295 294 294
321 321 321 321 320 321 321 319 317 317 315 305 299 297 297 298 297 297 297 299 298 299 299 299 299 298 298 297 297 296 295 293 293 292 292 291 291 291
321 321 320 321 320 320 320 319 318 317 316 307 299 296 293 294 291 292 293 294 296 296 295 295 295 295 294 294 293 291 290 289 288 288 287 287 287 288
319 319 319 320 320 319 319 318 318 316 314 312 303 297 294 293 294 290 288 289 289 292 292 292 292 292 292 291 290 289 288 287 286 285 285 284 284 285
314 314 315 313 307 310 315 317 318 317 315 308 303 294 292 290 292 290 287 285 284 287 288 289 289 288 288 288 288 287 286 286 285 284 284 284 283 284
310 310 311 305 304 298 297 298 308 316 313 309 302 298 295 293 292 290 285 285 283 285 285 283 286 285 285 285 286 286 286 285 284 284 284 284 283 283
309 307 305 303 298 300 297 293 293 295 301 312 304 302 295 294 292 289 288 288 285 284 285 281 284 283 284 286 286 286 285 284 284 284 283 283 283 283
305 303 302 297 293 293 290 287 286 287 293 304 307 303 300 296 295 294 291 285 284 284 284 279 282 280 283 284 286 286 284 284 284 283 283 283 284 284
294 292 295 292 291 292 288 286 285 285 289 291 293 294 294 294 294 289 286 287 280 280 282 281 280 279 281 282 284 285 285 284 283 283 284 284 284 284
286 286 287 287 289 289 288 287 286 285 286 287 287 287 288 289 289 293 290 288 280 278 281 279 279 279 276 281 282 283 283 284 284 284 284 284 285 284
286 285 285 287 287 288 288 287 285 285 285 285 285 284 283 284 284 285 286 289 285 279 282 281 279 279 278 278 280 282 282 282 283 284 284 284 284 283
284 284 285 286 286 285 284 285 284 284 283 282 281 279 279 279 280 281 282 282 283 282 282 282 279 278 277 276 276 280 280 281 281 281 281 281 281 281
284 284 284 283 283 282 282 282 282 282 281 278 276 276 277 279 279 279 279 279 280 281 281 282 281 280 279 277 276 277 277 278 279 279 279 279 279 280
278 278 279 279 278 278 278 278 279 279 278 276 275 276 277 277 277 278 277 277 276 276 280 282 281 280 278 278 277 276 277 275 277 277 278 278 279 279
279 278 277 277 276 276 276 277 277 277 276 276 276 275 275 276 275 277 276 276 275 275 275 277 279 279 278 278 276 276 276 275 276 276 277 276 278 279
277 275 275 275 274 275 275 275 276 276 276 276 276 276 275 275 275 276 276 275 274 274 274 275 276 276 276 276 278 274 274 275 275 276 276 274 275 278
275 274 274 274 274 274 275 275 275 276 277 276 276 275 275 275 275 274 274 274 273 273 273 274 274 274 271 269 273 278 274 274 274 274 275 275 274 276
274 274 274 274 274 274 274 274 275 275 275 275 275 275 275 275 274 273 272 272 272 272 272 272 272 272 271 271 271 273 277 274 273 273 273 274 276 277
273 273 273 273 273 273 273 273 274 273 274 273 274 274 274 273 272 272 272 272 272 272 270 270 271 272 271 272 271 270 272 275 275 273 273 272 272 273
272 272 272 273 273 273 273 273 273 273 272 272 271 271 272 272 271 271 271 270 270 270 269 270 272 273 272 271 268 267 270 270 273 274 274 274 273 270
269 270 270 271 272 272 272 271 270 270 270 270 270 270 270 269 270 270 269 269 269 268 268 268 269 270 269 269 268 267 267 268 269 269 271 273 274 276